| time (UTC) | temp F | wind direction | speed MPH | gust MPH | rain 1hr in | rain 24hr in | rain mn in | humidity % | barometer mb |
| 20260506214829 | 62 | 323 | 6.0 | 8.0 | 0.00 | 0.00 | 0.00 | 96 | 1008.0 |
| 20260506214740 | 62 | 320 | 4.0 | 7.0 | 0.00 | 0.00 | 0.00 | 96 | 1008.0 |
| 20260506214649 | 62 | 336 | 4.0 | 7.0 | 0.00 | 0.00 | 0.00 | 96 | 1008.0 |
| 20260506214527 | 62 | 340 | 6.0 | 7.0 | 0.00 | 0.00 | 0.00 | 97 | 1008.0 |
| 20260506214446 | 62 | 319 | 4.0 | 7.0 | 0.00 | 0.00 | 0.00 | 97 | 1008.0 |
| 20260506214344 | 62 | 340 | 4.0 | 7.0 | 0.00 | 0.00 | 0.00 | 96 | 1008.0 |
| 20260506214241 | 62 | 340 | 3.0 | 7.0 | 0.00 | 0.00 | 0.00 | 97 | 1008.0 |
| 20260506214159 | 62 | 342 | 3.0 | 7.0 | 0.00 | 0.00 | 0.00 | 97 | 1008.0 |
| 20260506214041 | 62 | 333 | 2.0 | 7.0 | 0.00 | 0.00 | 0.00 | 97 | 1008.0 |
| 20260506214000 | 62 | 326 | 4.0 | 7.0 | 0.00 | 0.00 | 0.00 | 96 | 1008.0 |
| 20260506213837 | 62 | 333 | 5.0 | 7.0 | 0.00 | 0.00 | 0.00 | 96 | 1008.0 |
| 20260506213736 | 62 | 332 | 5.0 | 7.0 | 0.00 | 0.00 | 0.00 | 96 | 1008.0 |
| 20260506213654 | 62 | 330 | 3.0 | 7.0 | 0.00 | 0.00 | 0.00 | 96 | 1008.0 |
| 20260506213531 | 62 | 309 | 2.0 | 7.0 | 0.00 | 0.00 | 0.00 | 96 | 1008.0 |
| 20260506213449 | 63 | 323 | 2.0 | 8.0 | 0.00 | 0.00 | 0.00 | 96 | 1008.0 |
| 20260506213347 | 62 | 328 | 4.0 | 9.0 | 0.00 | 0.00 | 0.00 | 96 | 1008.0 |
| 20260506213246 | 62 | 328 | 6.0 | 9.0 | 0.00 | 0.00 | 0.00 | 96 | 1008.0 |
| 20260506213201 | 62 | 320 | 6.0 | 9.0 | 0.00 | 0.00 | 0.00 | 96 | 1008.0 |
| 20260506213040 | 62 | 326 | 5.0 | 9.0 | 0.00 | 0.00 | 0.00 | 96 | 1008.0 |
| 20260506212937 | 62 | 326 | 4.0 | 9.0 | 0.00 | 0.00 | 0.00 | 96 | 1008.0 |
| 20260506212837 | 62 | 333 | 4.0 | 9.0 | 0.00 | 0.00 | 0.00 | 96 | 1008.0 |
| 20260506212735 | 62 | 323 | 3.0 | 9.0 | 0.00 | 0.00 | 0.00 | 96 | 1008.0 |
| 20260506212634 | 62 | 332 | 6.0 | 9.0 | 0.00 | 0.00 | 0.00 | 96 | 1008.0 |
| 20260506212532 | 62 | 329 | 6.0 | 9.0 | 0.00 | 0.00 | 0.00 | 96 | 1008.0 |
| 20260506212434 | 62 | 326 | 4.0 | 9.0 | 0.00 | 0.00 | 0.00 | 96 | 1008.0 |
| 20260506212353 | 62 | 315 | 5.0 | 9.0 | 0.00 | 0.00 | 0.00 | 96 | 1008.0 |
| 20260506212229 | 62 | 326 | 4.0 | 9.0 | 0.00 | 0.00 | 0.00 | 96 | 1008.0 |
| 20260506212151 | 63 | 329 | 6.0 | 9.0 | 0.00 | 0.00 | 0.00 | 96 | 1008.0 |
| 20260506212029 | 62 | 326 | 7.0 | 9.0 | 0.00 | 0.00 | 0.00 | 96 | 1008.0 |
| 20260506211928 | 62 | 332 | 4.0 | 9.0 | 0.00 | 0.00 | 0.00 | 96 | 1008.0 |
| 20260506211827 | 62 | 337 | 6.0 | 9.0 | 0.00 | 0.00 | 0.00 | 96 | 1008.0 |
| 20260506211731 | 63 | 336 | 7.0 | 9.0 | 0.00 | 0.00 | 0.00 | 96 | 1008.0 |
| 20260506211659 | 62 | 335 | 6.0 | 9.0 | 0.00 | 0.00 | 0.00 | 96 | 1008.0 |
| 20260506211539 | 62 | 323 | 5.0 | 8.0 | 0.00 | 0.00 | 0.00 | 96 | 1008.0 |
| 20260506211458 | 62 | 315 | 4.0 | 11.0 | 0.00 | 0.00 | 0.00 | 96 | 1008.0 |
| 20260506211355 | 62 | 322 | 5.0 | 12.0 | 0.00 | 0.00 | 0.00 | 96 | 1007.9 |
| 20260506211233 | 62 | 322 | 6.0 | 12.0 | 0.00 | 0.00 | 0.00 | 96 | 1007.9 |
| 20260506211132 | 62 | 322 | 7.0 | 12.0 | 0.00 | 0.00 | 0.00 | 96 | 1007.9 |
| 20260506211030 | 62 | 309 | 6.0 | 12.0 | 0.00 | 0.00 | 0.00 | 96 | 1007.9 |
| 20260506210934 | 62 | 318 | 7.0 | 12.0 | 0.00 | 0.00 | 0.00 | 96 | 1007.9 |
| 20260506210832 | 62 | 326 | 6.0 | 12.0 | 0.00 | 0.00 | 0.00 | 96 | 1007.9 |
| 20260506210731 | 62 | 323 | 5.0 | 12.0 | 0.00 | 0.00 | 0.00 | 96 | 1007.9 |
| 20260506210650 | 62 | 320 | 5.0 | 12.0 | 0.00 | 0.00 | 0.00 | 96 | 1007.9 |
| 20260506210527 | 62 | 318 | 8.0 | 12.0 | 0.00 | 0.00 | 0.00 | 96 | 1007.9 |
| 20260506210429 | 62 | 322 | 9.0 | 11.0 | 0.00 | 0.00 | 0.00 | 96 | 1007.9 |
| 20260506210327 | 62 | 308 | 6.0 | 11.0 | 0.00 | 0.00 | 0.00 | 96 | 1007.9 |
| 20260506210228 | 62 | 322 | 5.0 | 11.0 | 0.00 | 0.00 | 0.00 | 96 | 1007.9 |
| 20260506210200 | 62 | 337 | 5.0 | 11.0 | 0.00 | 0.00 | 0.00 | 96 | 1007.9 |
| 20260506210037 | 62 | 323 | 5.0 | 11.0 | 0.00 | 0.00 | 0.00 | 96 | 1007.9 |
| 20260506205939 | 62 | 320 | 5.0 | 11.0 | 0.00 | 0.00 | 0.00 | 96 | 1007.9 |
| 20260506205838 | 62 | 326 | 6.0 | 11.0 | 0.00 | 0.00 | 0.00 | 96 | 1007.6 |
| 20260506205735 | 62 | 318 | 5.0 | 10.0 | 0.00 | 0.00 | 0.00 | 96 | 1007.6 |
| 20260506205635 | 62 | 320 | 4.0 | 10.0 | 0.00 | 0.00 | 0.00 | 96 | 1007.6 |
| 20260506205538 | 62 | 308 | 3.0 | 10.0 | 0.00 | 0.00 | 0.00 | 96 | 1007.6 |
| 20260506205437 | 62 | 308 | 5.0 | 10.0 | 0.00 | 0.00 | 0.00 | 96 | 1007.6 |
| 20260506205354 | 62 | 325 | 6.0 | 10.0 | 0.00 | 0.00 | 0.00 | 96 | 1007.6 |
| 20260506205254 | 62 | 330 | 6.0 | 10.0 | 0.00 | 0.00 | 0.00 | 96 | 1007.6 |
| 20260506205132 | 62 | 328 | 4.0 | 10.0 | 0.00 | 0.00 | 0.00 | 96 | 1007.6 |
| 20260506205030 | 62 | 322 | 5.0 | 10.0 | 0.00 | 0.00 | 0.00 | 96 | 1007.6 |
| 20260506204929 | 62 | 322 | 5.0 | 10.0 | 0.00 | 0.00 | 0.00 | 96 | 1007.6 |
| 20260506204828 | 62 | 306 | 4.0 | 10.0 | 0.00 | 0.00 | 0.00 | 96 | 1007.6 |
| 20260506204802 | 62 | 330 | 4.0 | 12.0 | 0.00 | 0.00 | 0.00 | 96 | 1007.6 |
| 20260506204651 | 62 | 323 | 5.0 | 12.0 | 0.00 | 0.00 | 0.00 | 96 | 1007.6 |
| 20260506204529 | 62 | 320 | 4.0 | 12.0 | 0.00 | 0.00 | 0.00 | 96 | 1007.6 |
| 20260506204447 | 62 | 322 | 3.0 | 12.0 | 0.00 | 0.00 | 0.00 | 96 | 1007.6 |
| 20260506204324 | 62 | 322 | 5.0 | 12.0 | 0.00 | 0.00 | 0.00 | 96 | 1008.1 |
| 20260506204242 | 62 | 316 | 5.0 | 12.0 | 0.00 | 0.00 | 0.00 | 96 | 1008.1 |
| 20260506204140 | 62 | 323 | 6.0 | 12.0 | 0.00 | 0.00 | 0.00 | 96 | 1008.1 |
| 20260506204039 | 62 | 326 | 4.0 | 12.0 | 0.00 | 0.00 | 0.00 | 96 | 1008.1 |
| 20260506203958 | 62 | 320 | 7.0 | 12.0 | 0.00 | 0.00 | 0.00 | 96 | 1008.1 |
| 20260506203900 | 62 | 329 | 8.0 | 12.0 | 0.00 | 0.00 | 0.00 | 96 | 1008.1 |
| 20260506203757 | 62 | 318 | 9.0 | 12.0 | 0.00 | 0.00 | 0.00 | 96 | 1008.1 |
| 20260506203635 | 62 | 322 | 9.0 | 12.0 | 0.00 | 0.00 | 0.00 | 96 | 1008.1 |
| 20260506203532 | 62 | 326 | 7.0 | 11.0 | 0.00 | 0.00 | 0.00 | 96 | 1008.1 |
| 20260506203430 | 62 | 326 | 5.0 | 11.0 | 0.00 | 0.00 | 0.00 | 96 | 1008.1 |
| 20260506203328 | 62 | 316 | 5.0 | 11.0 | 0.00 | 0.00 | 0.00 | 96 | 1008.1 |
| 20260506203226 | 62 | 328 | 7.0 | 12.0 | 0.00 | 0.00 | 0.00 | 96 | 1008.1 |
| 20260506203157 | 62 | 323 | 5.0 | 12.0 | 0.00 | 0.00 | 0.00 | 96 | 1008.1 |
| 20260506203040 | 62 | 340 | 4.0 | 12.0 | 0.00 | 0.00 | 0.00 | 96 | 1008.1 |
| 20260506202939 | 62 | 323 | 7.0 | 12.0 | 0.00 | 0.00 | 0.00 | 96 | 1008.1 |
| 20260506202837 | 62 | 330 | 8.0 | 12.0 | 0.00 | 0.00 | 0.00 | 96 | 1008.1 |
| 20260506202735 | 62 | 326 | 9.0 | 12.0 | 0.00 | 0.00 | 0.00 | 96 | 1008.1 |
| 20260506202634 | 62 | 329 | 7.0 | 12.0 | 0.00 | 0.00 | 0.00 | 96 | 1008.1 |
| 20260506202552 | 62 | 318 | 5.0 | 12.0 | 0.00 | 0.00 | 0.00 | 96 | 1008.1 |
| 20260506202430 | 62 | 319 | 7.0 | 12.0 | 0.00 | 0.00 | 0.00 | 96 | 1008.1 |
| 20260506202332 | 62 | 325 | 4.0 | 11.0 | 0.00 | 0.00 | 0.00 | 96 | 1008.1 |
| 20260506202230 | 62 | 335 | 7.0 | 11.0 | 0.00 | 0.00 | 0.00 | 96 | 1008.1 |
| 20260506202128 | 62 | 329 | 5.0 | 11.0 | 0.00 | 0.00 | 0.00 | 96 | 1008.1 |
| 20260506202028 | 62 | 323 | 3.0 | 11.0 | 0.00 | 0.00 | 0.00 | 96 | 1008.1 |
| 20260506201926 | 62 | 322 | 4.0 | 11.0 | 0.00 | 0.00 | 0.00 | 96 | 1008.1 |
| 20260506201824 | 62 | 315 | 1.0 | 11.0 | 0.00 | 0.00 | 0.00 | 96 | 1008.1 |
| 20260506201735 | 62 | 328 | 4.0 | 11.0 | 0.00 | 0.00 | 0.00 | 96 | 1008.1 |
| 20260506201648 | 62 | 326 | 7.0 | 11.0 | 0.00 | 0.00 | 0.00 | 96 | 1008.1 |
| 20260506201527 | 62 | 318 | 6.0 | 11.0 | 0.00 | 0.00 | 0.00 | 96 | 1008.1 |
| 20260506201424 | 62 | 333 | 7.0 | 12.0 | 0.00 | 0.00 | 0.00 | 96 | 1008.1 |
| 20260506201343 | 62 | 323 | 5.0 | 12.0 | 0.00 | 0.00 | 0.00 | 96 | 1008.6 |
| 20260506201241 | 62 | 325 | 4.0 | 12.0 | 0.00 | 0.00 | 0.00 | 96 | 1008.6 |
| 20260506201141 | 62 | 320 | 3.0 | 12.0 | 0.00 | 0.00 | 0.00 | 96 | 1008.6 |
| 20260506201040 | 62 | 322 | 3.0 | 12.0 | 0.00 | 0.00 | 0.00 | 96 | 1008.6 |
| 20260506200923 | 62 | 319 | 4.0 | 12.0 | 0.00 | 0.00 | 0.00 | 96 | 1008.6 |
| 20260506200843 | 62 | 306 | 5.0 | 12.0 | 0.00 | 0.00 | 0.00 | 96 | 1008.6 |
| 20260506200741 | 62 | 315 | 4.0 | 12.0 | 0.00 | 0.00 | 0.00 | 96 | 1008.6 |
| 20260506200659 | 62 | 312 | 7.0 | 12.0 | 0.00 | 0.00 | 0.00 | 96 | 1008.6 |
| 20260506200537 | 62 | 320 | 7.0 | 12.0 | 0.00 | 0.00 | 0.00 | 96 | 1008.6 |
| 20260506200435 | 62 | 312 | 6.0 | 12.0 | 0.00 | 0.00 | 0.00 | 96 | 1008.6 |
| 20260506200333 | 62 | 328 | 5.0 | 8.0 | 0.00 | 0.00 | 0.00 | 96 | 1008.6 |
| 20260506200302 | 62 | 316 | 7.0 | 8.0 | 0.00 | 0.00 | 0.00 | 96 | 1008.6 |
| 20260506200152 | 62 | 320 | 7.0 | 8.0 | 0.00 | 0.00 | 0.00 | 96 | 1008.6 |
| 20260506200035 | 62 | 322 | 5.0 | 8.0 | 0.00 | 0.00 | 0.00 | 96 | 1008.6 |
| 20260506195933 | 62 | 316 | 2.0 | 8.0 | 0.00 | 0.00 | 0.00 | 96 | 1008.6 |
| 20260506195851 | 62 | 319 | 3.0 | 8.0 | 0.00 | 0.00 | 0.00 | 96 | 1008.9 |
| 20260506195729 | 62 | 319 | 2.0 | 8.0 | 0.00 | 0.00 | 0.00 | 95 | 1008.9 |
| 20260506195648 | 62 | 322 | 2.0 | 8.0 | 0.00 | 0.00 | 0.00 | 95 | 1008.9 |
| 20260506195525 | 62 | 304 | 2.0 | 8.0 | 0.00 | 0.00 | 0.00 | 95 | 1008.9 |
| 20260506195424 | 62 | 305 | 6.0 | 8.0 | 0.00 | 0.00 | 0.00 | 95 | 1008.9 |
| 20260506195324 | 62 | 325 | 3.0 | 7.0 | 0.00 | 0.00 | 0.00 | 95 | 1008.9 |
| 20260506195227 | 62 | 291 | 3.0 | 10.0 | 0.00 | 0.00 | 0.00 | 95 | 1008.9 |
| 20260506195126 | 62 | 306 | 3.0 | 10.0 | 0.00 | 0.00 | 0.00 | 95 | 1008.9 |
| 20260506195024 | 62 | 284 | 4.0 | 10.0 | 0.00 | 0.00 | 0.00 | 95 | 1008.9 |
| 20260506194942 | 62 | 325 | 3.0 | 10.0 | 0.00 | 0.00 | 0.00 | 95 | 1008.9 |
| 20260506194841 | 62 | 318 | 2.0 | 11.0 | 0.00 | 0.00 | 0.00 | 95 | 1008.9 |
| 20260506194740 | 62 | 312 | 3.0 | 11.0 | 0.00 | 0.00 | 0.00 | 95 | 1008.9 |
| 20260506194709 | 62 | 313 | 2.0 | 11.0 | 0.00 | 0.00 | 0.00 | 95 | 1008.9 |
| 20260506194546 | 62 | 305 | 5.0 | 11.0 | 0.00 | 0.00 | 0.00 | 95 | 1008.9 |
| 20260506194428 | 62 | 318 | 6.0 | 11.0 | 0.00 | 0.00 | 0.00 | 95 | 1008.9 |
| 20260506194325 | 62 | 325 | 5.0 | 11.0 | 0.00 | 0.00 | 0.00 | 95 | 1009.2 |
| 20260506194243 | 62 | 306 | 4.0 | 11.0 | 0.00 | 0.00 | 0.00 | 95 | 1009.2 |
| 20260506194143 | 62 | 318 | 5.0 | 11.0 | 0.00 | 0.00 | 0.00 | 95 | 1009.2 |
| 20260506194041 | 62 | 322 | 6.0 | 11.0 | 0.00 | 0.00 | 0.00 | 95 | 1009.2 |
| 20260506193939 | 62 | 316 | 5.0 | 11.0 | 0.00 | 0.00 | 0.00 | 95 | 1009.2 |
| 20260506193839 | 62 | 312 | 5.0 | 11.0 | 0.00 | 0.00 | 0.00 | 95 | 1009.2 |
| 20260506193800 | 62 | 277 | 4.0 | 11.0 | 0.00 | 0.00 | 0.00 | 95 | 1009.2 |
| 20260506193658 | 62 | 299 | 3.0 | 15.0 | 0.00 | 0.00 | 0.00 | 95 | 1009.2 |
| 20260506193535 | 62 | 316 | 3.0 | 15.0 | 0.00 | 0.00 | 0.00 | 95 | 1009.2 |
| 20260506193434 | 62 | 298 | 3.0 | 15.0 | 0.00 | 0.00 | 0.00 | 95 | 1009.2 |
| 20260506193332 | 62 | 316 | 1.0 | 15.0 | 0.00 | 0.00 | 0.00 | 95 | 1009.2 |
| 20260506193243 | 62 | 309 | 6.0 | 15.0 | 0.00 | 0.00 | 0.00 | 95 | 1009.2 |
| 20260506193152 | 62 | 306 | 5.0 | 15.0 | 0.00 | 0.00 | 0.00 | 94 | 1009.2 |
| 20260506193028 | 62 | 311 | 5.0 | 15.0 | 0.00 | 0.00 | 0.00 | 94 | 1009.2 |
| 20260506192951 | 62 | 308 | 4.0 | 15.0 | 0.00 | 0.00 | 0.00 | 94 | 1009.2 |
| 20260506192828 | 62 | 326 | 6.0 | 15.0 | 0.00 | 0.00 | 0.00 | 94 | 1009.7 |
| 20260506192727 | 62 | 315 | 7.0 | 12.0 | 0.00 | 0.00 | 0.00 | 94 | 1009.7 |
| 20260506192626 | 62 | 302 | 7.0 | 12.0 | 0.00 | 0.00 | 0.00 | 94 | 1009.7 |
| 20260506192524 | 62 | 306 | 6.0 | 11.0 | 0.00 | 0.00 | 0.00 | 94 | 1009.7 |
| 20260506192442 | 62 | 318 | 7.0 | 11.0 | 0.00 | 0.00 | 0.00 | 94 | 1009.7 |
| 20260506192341 | 62 | 302 | 5.0 | 11.0 | 0.00 | 0.00 | 0.00 | 94 | 1009.7 |
| 20260506192244 | 62 | 318 | 5.0 | 14.0 | 0.00 | 0.00 | 0.00 | 94 | 1009.7 |
| 20260506192203 | 62 | 304 | 6.0 | 14.0 | 0.00 | 0.00 | 0.00 | 94 | 1009.7 |
| 20260506192104 | 62 | 306 | 7.0 | 14.0 | 0.00 | 0.00 | 0.00 | 94 | 1009.7 |
| 20260506191940 | 62 | 311 | 6.0 | 14.0 | 0.00 | 0.00 | 0.00 | 94 | 1009.7 |
| 20260506191839 | 62 | 304 | 4.0 | 14.0 | 0.00 | 0.00 | 0.00 | 94 | 1009.7 |
| 20260506191738 | 62 | 305 | 7.0 | 14.0 | 0.00 | 0.00 | 0.00 | 94 | 1009.7 |
| 20260506191707 | 62 | 315 | 3.0 | 14.0 | 0.00 | 0.00 | 0.00 | 94 | 1009.7 |
| 20260506191524 | 62 | 328 | 5.0 | 14.0 | 0.00 | 0.00 | 0.00 | 94 | 1009.7 |
| 20260506191425 | 62 | 328 | 9.0 | 14.0 | 0.00 | 0.00 | 0.00 | 93 | 1009.7 |
| 20260506191343 | 62 | 313 | 8.0 | 16.0 | 0.00 | 0.00 | 0.00 | 93 | 1009.7 |
| 20260506191242 | 62 | 304 | 4.0 | 20.0 | 0.00 | 0.00 | 0.00 | 93 | 1009.7 |
| 20260506191141 | 62 | 302 | 3.0 | 20.0 | 0.00 | 0.00 | 0.00 | 93 | 1009.7 |
| 20260506191100 | 62 | 320 | 7.0 | 20.0 | 0.00 | 0.00 | 0.00 | 93 | 1009.7 |
| 20260506190938 | 62 | 318 | 7.0 | 20.0 | 0.00 | 0.00 | 0.00 | 93 | 1009.7 |
| 20260506190836 | 62 | 319 | 5.0 | 20.0 | 0.00 | 0.00 | 0.00 | 93 | 1009.7 |
| 20260506190735 | 62 | 325 | 8.0 | 20.0 | 0.00 | 0.00 | 0.00 | 93 | 1009.7 |
| 20260506190638 | 62 | 313 | 7.0 | 20.0 | 0.00 | 0.00 | 0.00 | 93 | 1009.7 |
| 20260506190559 | 62 | 318 | 8.0 | 20.0 | 0.00 | 0.00 | 0.00 | 93 | 1009.7 |
| 20260506190457 | 62 | 296 | 9.0 | 20.0 | 0.00 | 0.00 | 0.00 | 93 | 1009.7 |
| 20260506190334 | 62 | 328 | 8.0 | 20.0 | 0.00 | 0.00 | 0.00 | 93 | 1009.7 |
| 20260506190253 | 62 | 330 | 4.0 | 16.0 | 0.00 | 0.00 | 0.00 | 93 | 1009.7 |
| 20260506190223 | 62 | 329 | 3.0 | 16.0 | 0.00 | 0.00 | 0.00 | 93 | 1009.7 |
| 20260506190039 | 62 | 329 | 4.0 | 16.0 | 0.00 | 0.00 | 0.00 | 93 | 1009.7 |
| 20260506185937 | 62 | 313 | 3.0 | 20.0 | 0.00 | 0.00 | 0.00 | 93 | 1009.7 |
| 20260506185840 | 62 | 318 | 5.0 | 20.0 | 0.00 | 0.00 | 0.00 | 93 | 1009.5 |
| 20260506185738 | 62 | 322 | 7.0 | 20.0 | 0.00 | 0.00 | 0.00 | 93 | 1009.5 |
| 20260506185636 | 62 | 329 | 8.0 | 20.0 | 0.00 | 0.00 | 0.00 | 93 | 1009.5 |
| 20260506185555 | 62 | 329 | 9.0 | 20.0 | 0.00 | 0.00 | 0.00 | 93 | 1009.5 |
| 20260506185432 | 62 | 311 | 5.0 | 20.0 | 0.00 | 0.00 | 0.00 | 93 | 1009.5 |
| 20260506185330 | 62 | 330 | 5.0 | 20.0 | 0.00 | 0.00 | 0.00 | 93 | 1009.5 |
| 20260506185229 | 62 | 305 | 8.0 | 20.0 | 0.00 | 0.00 | 0.00 | 93 | 1009.5 |
| 20260506185136 | 62 | 322 | 10.0 | 20.0 | 0.00 | 0.00 | 0.00 | 93 | 1009.5 |
| 20260506185034 | 62 | 329 | 9.0 | 13.0 | 0.00 | 0.00 | 0.00 | 93 | 1009.5 |
| 20260506184932 | 62 | 325 | 10.0 | 13.0 | 0.00 | 0.00 | 0.00 | 93 | 1009.5 |
| 20260506184850 | 62 | 326 | 7.0 | 11.0 | 0.00 | 0.00 | 0.00 | 93 | 1009.5 |
| 20260506184748 | 62 | 322 | 5.0 | 11.0 | 0.00 | 0.00 | 0.00 | 93 | 1009.5 |
| 20260506184717 | 62 | 326 | 6.0 | 11.0 | 0.00 | 0.00 | 0.00 | 93 | 1009.5 |
| 20260506184537 | 62 | 312 | 6.0 | 9.0 | 0.00 | 0.00 | 0.00 | 93 | 1009.5 |
| 20260506184456 | 62 | 319 | 7.0 | 9.0 | 0.00 | 0.00 | 0.00 | 93 | 1009.5 |
| 20260506184333 | 62 | 328 | 6.0 | 9.0 | 0.00 | 0.00 | 0.00 | 93 | 1009.8 |
| 20260506184236 | 62 | 329 | 4.0 | 10.0 | 0.00 | 0.00 | 0.00 | 93 | 1009.8 |
| 20260506184133 | 62 | 326 | 2.0 | 11.0 | 0.00 | 0.00 | 0.00 | 93 | 1009.8 |
| 20260506184030 | 62 | 323 | 3.0 | 11.0 | 0.00 | 0.00 | 0.00 | 93 | 1009.8 |
| 20260506183929 | 62 | 329 | 6.0 | 11.0 | 0.00 | 0.00 | 0.00 | 93 | 1009.8 |
| 20260506183827 | 62 | 329 | 6.0 | 11.0 | 0.00 | 0.00 | 0.00 | 93 | 1009.8 |
| 20260506183726 | 62 | 326 | 7.0 | 11.0 | 0.00 | 0.00 | 0.00 | 93 | 1009.8 |
| 20260506183629 | 62 | 328 | 6.0 | 11.0 | 0.00 | 0.00 | 0.00 | 92 | 1009.8 |
| 20260506183531 | 62 | 328 | 4.0 | 11.0 | 0.00 | 0.00 | 0.00 | 93 | 1009.8 |
| 20260506183448 | 62 | 329 | 6.0 | 11.0 | 0.00 | 0.00 | 0.00 | 93 | 1009.8 |
| 20260506183326 | 62 | 328 | 9.0 | 11.0 | 0.00 | 0.00 | 0.00 | 93 | 1009.8 |
| 20260506183245 | 62 | 330 | 5.0 | 11.0 | 0.00 | 0.00 | 0.00 | 93 | 1009.8 |
| 20260506183217 | 62 | 325 | 2.0 | 11.0 | 0.00 | 0.00 | 0.00 | 93 | 1009.8 |
| 20260506183034 | 62 | 329 | 4.0 | 11.0 | 0.00 | 0.00 | 0.00 | 92 | 1009.8 |
| 20260506182932 | 62 | 326 | 4.0 | 14.0 | 0.00 | 0.00 | 0.00 | 92 | 1009.8 |
| 20260506182834 | 62 | 330 | 2.0 | 14.0 | 0.00 | 0.00 | 0.00 | 92 | 1010.6 |
| 20260506182734 | 62 | 323 | 5.0 | 14.0 | 0.00 | 0.00 | 0.00 | 92 | 1010.6 |
| 20260506182652 | 62 | 285 | 3.0 | 16.0 | 0.00 | 0.00 | 0.00 | 92 | 1010.6 |
| 20260506182530 | 62 | 323 | 5.0 | 16.0 | 0.00 | 0.00 | 0.00 | 92 | 1010.6 |
| 20260506182450 | 62 | 319 | 4.0 | 16.0 | 0.00 | 0.00 | 0.00 | 92 | 1010.6 |
| 20260506182327 | 62 | 326 | 5.0 | 16.0 | 0.00 | 0.00 | 0.00 | 92 | 1010.6 |
| 20260506182226 | 62 | 330 | 6.0 | 17.0 | 0.00 | 0.00 | 0.00 | 92 | 1010.6 |
| 20260506182124 | 62 | 328 | 9.0 | 17.0 | 0.00 | 0.00 | 0.00 | 92 | 1010.6 |
| 20260506182026 | 63 | 330 | 8.0 | 17.0 | 0.00 | 0.00 | 0.00 | 92 | 1010.6 |
| 20260506181946 | 63 | 322 | 6.0 | 17.0 | 0.00 | 0.00 | 0.00 | 92 | 1010.6 |
| 20260506181843 | 63 | 318 | 7.0 | 17.0 | 0.00 | 0.00 | 0.00 | 92 | 1010.6 |
| 20260506181741 | 63 | 320 | 7.0 | 17.0 | 0.00 | 0.00 | 0.00 | 92 | 1010.6 |
| 20260506181711 | 63 | 294 | 8.0 | 17.0 | 0.00 | 0.00 | 0.00 | 92 | 1010.6 |
| 20260506181528 | 63 | 328 | 12.0 | 17.0 | 0.00 | 0.00 | 0.00 | 92 | 1010.6 |
| 20260506181446 | 63 | 295 | 13.0 | 17.0 | 0.00 | 0.00 | 0.00 | 92 | 1010.6 |
| 20260506181405 | 63 | 311 | 10.0 | 17.0 | 0.00 | 0.00 | 0.00 | 92 | 1010.6 |
| 20260506181302 | 63 | 325 | 6.0 | 17.0 | 0.00 | 0.00 | 0.00 | 92 | 1010.6 |
| 20260506181145 | 63 | 312 | 9.0 | 17.0 | 0.00 | 0.00 | 0.00 | 92 | 1010.6 |
| 20260506181022 | 63 | 318 | 9.0 | 17.0 | 0.00 | 0.00 | 0.00 | 92 | 1010.6 |
| 20260506180944 | 63 | 328 | 6.0 | 17.0 | 0.00 | 0.00 | 0.00 | 92 | 1010.6 |
| 20260506180842 | 63 | 326 | 6.0 | 17.0 | 0.00 | 0.00 | 0.00 | 92 | 1010.6 |
| 20260506180740 | 63 | 309 | 8.0 | 17.0 | 0.00 | 0.00 | 0.00 | 92 | 1010.6 |
| 20260506180638 | 63 | 319 | 7.0 | 12.0 | 0.00 | 0.00 | 0.00 | 92 | 1010.6 |
| 20260506180537 | 63 | 329 | 4.0 | 12.0 | 0.00 | 0.00 | 0.00 | 92 | 1010.6 |
| 20260506180436 | 63 | 323 | 6.0 | 12.0 | 0.00 | 0.00 | 0.00 | 92 | 1010.6 |
| 20260506180339 | 63 | 328 | 7.0 | 14.0 | 0.00 | 0.00 | 0.00 | 92 | 1010.6 |
| 20260506180238 | 63 | 326 | 3.0 | 16.0 | 0.00 | 0.00 | 0.00 | 92 | 1010.6 |
| 20260506180210 | 64 | 319 | 4.0 | 16.0 | 0.00 | 0.00 | 0.00 | 92 | 1010.6 |
| 20260506180026 | 64 | 299 | 4.0 | 20.0 | 0.00 | 0.00 | 0.00 | 92 | 1010.6 |
| 20260506175943 | 64 | 318 | 5.0 | 20.0 | 0.00 | 0.00 | 0.00 | 92 | 1010.6 |
| 20260506175841 | 64 | 328 | 5.0 | 20.0 | 0.00 | 0.00 | 0.00 | 92 | 1010.6 |
| 20260506175759 | 64 | 326 | 6.0 | 20.0 | 0.00 | 0.00 | 0.00 | 92 | 1010.6 |
| 20260506175655 | 64 | 329 | 7.0 | 20.0 | 0.00 | 0.00 | 0.00 | 92 | 1010.6 |
| 20260506175537 | 64 | 325 | 7.0 | 20.0 | 0.00 | 0.00 | 0.00 | 92 | 1010.6 |
| 20260506175435 | 64 | 326 | 12.0 | 20.0 | 0.00 | 0.00 | 0.00 | 92 | 1010.6 |
| 20260506175333 | 64 | 289 | 4.0 | 20.0 | 0.00 | 0.00 | 0.00 | 92 | 1010.6 |
| 20260506175231 | 64 | 329 | 10.0 | 20.0 | 0.00 | 0.00 | 0.00 | 92 | 1010.6 |
| 20260506175131 | 64 | 325 | 7.0 | 11.0 | 0.00 | 0.00 | 0.00 | 92 | 1010.6 |
| 20260506175029 | 64 | 329 | 4.0 | 11.0 | 0.00 | 0.00 | 0.00 | 92 | 1010.6 |
| 20260506174930 | 64 | 328 | 5.0 | 12.0 | 0.00 | 0.00 | 0.00 | 92 | 1010.6 |
| 20260506174833 | 64 | 329 | 7.0 | 13.0 | 0.00 | 0.00 | 0.00 | 92 | 1010.6 |
| 20260506174743 | 64 | 325 | 4.0 | 13.0 | 0.00 | 0.00 | 0.00 | 92 | 1010.6 |
| 20260506174651 | 64 | 316 | 4.0 | 13.0 | 0.00 | 0.00 | 0.00 | 92 | 1010.6 |
| 20260506174529 | 64 | 323 | 5.0 | 16.0 | 0.00 | 0.00 | 0.00 | 92 | 1010.6 |
| 20260506174428 | 64 | 312 | 4.0 | 20.0 | 0.00 | 0.00 | 0.00 | 92 | 1010.6 |
| 20260506174346 | 65 | 313 | 2.0 | 20.0 | 0.00 | 0.00 | 0.00 | 92 | 1010.9 |
| 20260506174243 | 65 | 328 | 4.0 | 21.0 | 0.00 | 0.00 | 0.00 | 92 | 1010.9 |
| 20260506174141 | 65 | 312 | 8.0 | 21.0 | 0.00 | 0.00 | 0.00 | 92 | 1010.9 |
| 20260506174104 | 65 | 322 | 8.0 | 21.0 | 0.00 | 0.00 | 0.00 | 92 | 1010.9 |
| 20260506173941 | 65 | 318 | 7.0 | 21.0 | 0.00 | 0.00 | 0.00 | 92 | 1010.9 |
| 20260506173840 | 65 | 323 | 6.0 | 21.0 | 0.00 | 0.00 | 0.00 | 92 | 1010.9 |
| 20260506173757 | 65 | 335 | 9.0 | 21.0 | 0.00 | 0.00 | 0.00 | 92 | 1010.9 |
| 20260506173635 | 66 | 336 | 12.0 | 21.0 | 0.00 | 0.00 | 0.00 | 93 | 1010.9 |
| 20260506173532 | 66 | 313 | 10.0 | 21.0 | 0.00 | 0.00 | 0.00 | 93 | 1010.9 |
| 20260506173431 | 66 | 312 | 12.0 | 21.0 | 0.00 | 0.00 | 0.00 | 93 | 1010.9 |
| 20260506173333 | 66 | 315 | 4.0 | 13.0 | 0.00 | 0.00 | 0.00 | 93 | 1010.9 |
| 20260506173241 | 66 | 344 | 6.0 | 12.0 | 0.00 | 0.00 | 0.00 | 93 | 1010.9 |
| 20260506173151 | 66 | 329 | 5.0 | 12.0 | 0.00 | 0.00 | 0.00 | 93 | 1010.9 |
| 20260506173032 | 66 | 323 | 6.0 | 12.0 | 0.00 | 0.00 | 0.00 | 93 | 1010.9 |
| 20260506172929 | 66 | 313 | 3.0 | 12.0 | 0.00 | 0.00 | 0.00 | 93 | 1010.9 |
| 20260506172827 | 66 | 328 | 4.0 | 12.0 | 0.00 | 0.00 | 0.00 | 93 | 1010.5 |
| 20260506172747 | 66 | 304 | 3.0 | 12.0 | 0.00 | 0.00 | 0.00 | 93 | 1010.5 |
| 20260506172706 | 66 | 304 | 5.0 | 18.0 | 0.00 | 0.00 | 0.00 | 93 | 1010.5 |
| 20260506172603 | 66 | 294 | 5.0 | 18.0 | 0.00 | 0.00 | 0.00 | 93 | 1010.5 |
| 20260506172445 | 66 | 302 | 6.0 | 18.0 | 0.00 | 0.00 | 0.00 | 93 | 1010.5 |
| 20260506172342 | 66 | 308 | 7.0 | 18.0 | 0.00 | 0.00 | 0.00 | 93 | 1010.5 |
| 20260506172240 | 66 | 311 | 5.0 | 18.0 | 0.00 | 0.00 | 0.00 | 93 | 1010.5 |
| 20260506172138 | 66 | 328 | 3.0 | 18.0 | 0.00 | 0.00 | 0.00 | 93 | 1010.5 |
| 20260506172037 | 66 | 320 | 5.0 | 18.0 | 0.00 | 0.00 | 0.00 | 93 | 1010.5 |
| 20260506171954 | 66 | 302 | 7.0 | 18.0 | 0.00 | 0.00 | 0.00 | 93 | 1010.5 |
| 20260506171852 | 66 | 329 | 13.0 | 18.0 | 0.00 | 0.00 | 0.00 | 93 | 1010.5 |
| 20260506171741 | 66 | 312 | 6.0 | 18.0 | 0.00 | 0.00 | 0.00 | 93 | 1010.5 |
| 20260506171650 | 66 | 322 | 5.0 | 18.0 | 0.00 | 0.00 | 0.00 | 92 | 1010.5 |
| 20260506171531 | 66 | 326 | 6.0 | 18.0 | 0.00 | 0.00 | 0.00 | 92 | 1010.5 |
| 20260506171450 | 66 | 323 | 6.0 | 18.0 | 0.00 | 0.00 | 0.00 | 92 | 1010.5 |
| 20260506171328 | 66 | 315 | 8.0 | 18.0 | 0.00 | 0.00 | 0.00 | 92 | 1010.4 |
| 20260506171246 | 66 | 312 | 9.0 | 18.0 | 0.00 | 0.00 | 0.00 | 92 | 1010.4 |
| 20260506171143 | 66 | 320 | 8.0 | 18.0 | 0.00 | 0.00 | 0.00 | 92 | 1010.4 |
| 20260506171041 | 66 | 296 | 9.0 | 18.0 | 0.00 | 0.00 | 0.00 | 92 | 1010.4 |
| 20260506170940 | 66 | 313 | 12.0 | 21.0 | 0.00 | 0.00 | 0.00 | 92 | 1010.4 |
| 20260506170859 | 66 | 313 | 9.0 | 21.0 | 0.00 | 0.00 | 0.00 | 92 | 1010.4 |
| 20260506170737 | 66 | 299 | 9.0 | 21.0 | 0.00 | 0.00 | 0.00 | 92 | 1010.4 |
| 20260506170640 | 66 | 328 | 8.0 | 21.0 | 0.00 | 0.00 | 0.00 | 92 | 1010.4 |
| 20260506170537 | 66 | 329 | 7.0 | 21.0 | 0.00 | 0.00 | 0.00 | 92 | 1010.4 |
| 20260506170437 | 66 | 329 | 9.0 | 21.0 | 0.00 | 0.00 | 0.00 | 92 | 1010.4 |
| 20260506170334 | 66 | 313 | 8.0 | 21.0 | 0.00 | 0.00 | 0.00 | 92 | 1010.4 |
| 20260506170303 | 66 | 325 | 9.0 | 21.0 | 0.00 | 0.00 | 0.00 | 92 | 1010.4 |
| 20260506170151 | 66 | 280 | 14.0 | 21.0 | 0.00 | 0.00 | 0.00 | 92 | 1010.4 |
| 20260506170029 | 66 | 326 | 14.0 | 21.0 | 0.00 | 0.00 | 0.00 | 92 | 1010.4 |
| 20260506165932 | 66 | 319 | 13.0 | 21.0 | 0.00 | 0.00 | 0.00 | 92 | 1010.4 |
| 20260506165850 | 66 | 313 | 9.0 | 21.0 | 0.00 | 0.00 | 0.00 | 92 | 1010.2 |
| 20260506165729 | 66 | 326 | 15.0 | 21.0 | 0.00 | 0.00 | 0.00 | 92 | 1010.2 |
| 20260506165631 | 66 | 291 | 12.0 | 20.0 | 0.00 | 0.00 | 0.00 | 92 | 1010.2 |
| 20260506165530 | 66 | 312 | 11.0 | 20.0 | 0.00 | 0.00 | 0.00 | 92 | 1010.2 |
| 20260506165448 | 66 | 322 | 9.0 | 20.0 | 0.00 | 0.00 | 0.00 | 92 | 1010.2 |
| 20260506165406 | 66 | 319 | 10.0 | 21.0 | 0.00 | 0.00 | 0.00 | 92 | 1010.2 |
| 20260506165305 | 66 | 282 | 10.0 | 21.0 | 0.00 | 0.00 | 0.00 | 92 | 1010.2 |
| 20260506165124 | 66 | 332 | 13.0 | 21.0 | 0.00 | 0.00 | 0.00 | 92 | 1010.2 |
| 20260506165043 | 66 | 315 | 10.0 | 21.0 | 0.00 | 0.00 | 0.00 | 92 | 1010.2 |
| 20260506165001 | 66 | 325 | 9.0 | 21.0 | 0.00 | 0.00 | 0.00 | 92 | 1010.2 |
| 20260506164858 | 66 | 291 | 12.0 | 21.0 | 0.00 | 0.00 | 0.00 | 92 | 1010.2 |
| 20260506164755 | 66 | 323 | 17.0 | 21.0 | 0.00 | 0.00 | 0.00 | 92 | 1010.2 |
| 20260506164704 | 66 | 319 | 11.0 | 21.0 | 0.00 | 0.00 | 0.00 | 92 | 1010.2 |
| 20260506164541 | 66 | 315 | 12.0 | 21.0 | 0.00 | 0.00 | 0.00 | 92 | 1010.2 |
| 20260506164439 | 66 | 247 | 8.0 | 16.0 | 0.00 | 0.00 | 0.00 | 93 | 1010.2 |
| 20260506164338 | 66 | 298 | 9.0 | 16.0 | 0.00 | 0.00 | 0.00 | 92 | 1009.9 |
| 20260506164241 | 66 | 316 | 12.0 | 22.0 | 0.00 | 0.00 | 0.00 | 92 | 1009.9 |
| 20260506164139 | 66 | 315 | 7.0 | 22.0 | 0.00 | 0.00 | 0.00 | 92 | 1009.9 |
| 20260506164038 | 66 | 328 | 7.0 | 22.0 | 0.00 | 0.00 | 0.00 | 92 | 1009.9 |
| 20260506163935 | 66 | 319 | 10.0 | 22.0 | 0.00 | 0.00 | 0.00 | 92 | 1009.9 |
| 20260506163854 | 66 | 328 | 9.0 | 22.0 | 0.00 | 0.00 | 0.00 | 92 | 1009.9 |
| 20260506163752 | 66 | 322 | 5.0 | 22.0 | 0.00 | 0.00 | 0.00 | 92 | 1009.9 |
| 20260506163631 | 66 | 316 | 10.0 | 22.0 | 0.00 | 0.00 | 0.00 | 92 | 1009.9 |
| 20260506163530 | 66 | 315 | 9.0 | 22.0 | 0.00 | 0.00 | 0.00 | 92 | 1009.9 |
| 20260506163452 | 66 | 319 | 9.0 | 22.0 | 0.00 | 0.00 | 0.00 | 92 | 1009.9 |
| 20260506163329 | 66 | 316 | 13.0 | 21.0 | 0.00 | 0.00 | 0.00 | 92 | 1009.9 |
| 20260506163228 | 66 | 325 | 13.0 | 21.0 | 0.00 | 0.00 | 0.00 | 92 | 1009.9 |
| 20260506163158 | 66 | 254 | 11.0 | 21.0 | 0.00 | 0.00 | 0.00 | 92 | 1009.9 |
| 20260506163035 | 66 | 305 | 14.0 | 21.0 | 0.00 | 0.00 | 0.00 | 93 | 1009.9 |
| 20260506162934 | 66 | 323 | 13.0 | 19.0 | 0.00 | 0.00 | 0.00 | 92 | 1009.9 |
| 20260506162832 | 66 | 305 | 11.0 | 19.0 | 0.00 | 0.00 | 0.00 | 93 | 1009.9 |
| 20260506162730 | 66 | 298 | 6.0 | 21.0 | 0.00 | 0.00 | 0.00 | 93 | 1009.9 |
| 20260506162634 | 66 | 291 | 6.0 | 21.0 | 0.00 | 0.00 | 0.00 | 93 | 1009.9 |
| 20260506162535 | 66 | 312 | 11.0 | 21.0 | 0.00 | 0.00 | 0.00 | 93 | 1009.9 |
| 20260506162454 | 66 | 313 | 11.0 | 21.0 | 0.00 | 0.00 | 0.00 | 93 | 1009.9 |
| 20260506162331 | 66 | 311 | 4.0 | 21.0 | 0.00 | 0.00 | 0.00 | 93 | 1009.9 |
| 20260506162229 | 66 | 272 | 4.0 | 21.0 | 0.00 | 0.00 | 0.00 | 93 | 1009.9 |
| 20260506162129 | 66 | 318 | 9.0 | 21.0 | 0.00 | 0.00 | 0.00 | 93 | 1009.9 |
| 20260506162048 | 66 | 326 | 7.0 | 21.0 | 0.00 | 0.00 | 0.00 | 93 | 1009.9 |
| 20260506161930 | 66 | 316 | 14.0 | 21.0 | 0.00 | 0.00 | 0.00 | 93 | 1009.9 |
| 20260506161847 | 66 | 319 | 11.0 | 20.0 | 0.00 | 0.00 | 0.00 | 93 | 1009.9 |
| 20260506161726 | 66 | 316 | 13.0 | 20.0 | 0.00 | 0.00 | 0.00 | 93 | 1009.9 |
| 20260506161659 | 66 | 268 | 13.0 | 20.0 | 0.00 | 0.00 | 0.00 | 93 | 1009.9 |
| 20260506161537 | 66 | 280 | 16.0 | 20.0 | 0.00 | 0.00 | 0.00 | 93 | 1009.9 |
| 20260506161435 | 66 | 287 | 10.0 | 25.0 | 0.00 | 0.00 | 0.00 | 93 | 1009.9 |
| 20260506161335 | 66 | 322 | 9.0 | 25.0 | 0.00 | 0.00 | 0.00 | 93 | 1009.9 |
| 20260506161233 | 66 | 318 | 10.0 | 25.0 | 0.00 | 0.00 | 0.00 | 93 | 1009.9 |
| 20260506161134 | 66 | 323 | 10.0 | 25.0 | 0.00 | 0.00 | 0.00 | 93 | 1009.9 |
| 20260506161032 | 66 | 296 | 13.0 | 25.0 | 0.00 | 0.00 | 0.00 | 93 | 1009.9 |
| 20260506160931 | 66 | 323 | 13.0 | 25.0 | 0.00 | 0.00 | 0.00 | 93 | 1009.9 |
| 20260506160827 | 66 | 322 | 13.0 | 25.0 | 0.00 | 0.00 | 0.00 | 93 | 1009.9 |
| 20260506160746 | 66 | 320 | 8.0 | 25.0 | 0.00 | 0.00 | 0.00 | 93 | 1009.9 |
| 20260506160624 | 66 | 294 | 16.0 | 25.0 | 0.00 | 0.00 | 0.00 | 93 | 1009.9 |
| 20260506160524 | 66 | 325 | 12.0 | 22.0 | 0.00 | 0.00 | 0.00 | 93 | 1009.9 |
| 20260506160427 | 66 | 329 | 13.0 | 22.0 | 0.00 | 0.00 | 0.00 | 93 | 1009.9 |
| 20260506160326 | 66 | 318 | 7.0 | 22.0 | 0.00 | 0.00 | 0.00 | 93 | 1009.9 |
| 20260506160225 | 66 | 288 | 10.0 | 22.0 | 0.00 | 0.00 | 0.00 | 93 | 1009.9 |
| 20260506160157 | 66 | 316 | 8.0 | 22.0 | 0.00 | 0.00 | 0.00 | 93 | 1009.9 |
| 20260506160037 | 66 | 326 | 7.0 | 22.0 | 0.00 | 0.00 | 0.00 | 93 | 1009.9 |
| 20260506155935 | 66 | 298 | 6.0 | 22.0 | 0.00 | 0.00 | 0.00 | 93 | 1009.9 |
| 20260506155833 | 66 | 280 | 11.0 | 26.0 | 0.00 | 0.00 | 0.00 | 93 | 1009.6 |
| 20260506155732 | 66 | 323 | 14.0 | 31.0 | 0.00 | 0.00 | 0.00 | 93 | 1009.6 |
| 20260506155655 | 66 | 328 | 17.0 | 31.0 | 0.00 | 0.00 | 0.00 | 93 | 1009.6 |
| 20260506155532 | 66 | 302 | 11.0 | 31.0 | 0.00 | 0.00 | 0.00 | 93 | 1009.6 |
| 20260506155431 | 66 | 306 | 13.0 | 31.0 | 0.00 | 0.00 | 0.00 | 93 | 1009.6 |
| 20260506155329 | 66 | 319 | 13.0 | 31.0 | 0.00 | 0.00 | 0.00 | 93 | 1009.6 |
| 20260506155231 | 66 | 319 | 14.0 | 31.0 | 0.00 | 0.00 | 0.00 | 93 | 1009.6 |
| 20260506155129 | 66 | 291 | 15.0 | 31.0 | 0.00 | 0.00 | 0.00 | 93 | 1009.6 |
| 20260506155048 | 66 | 315 | 18.0 | 31.0 | 0.00 | 0.00 | 0.00 | 93 | 1009.6 |
| 20260506154928 | 66 | 302 | 15.0 | 31.0 | 0.00 | 0.00 | 0.00 | 93 | 1009.6 |
| 20260506154828 | 66 | 315 | 12.0 | 25.0 | 0.00 | 0.00 | 0.00 | 93 | 1009.6 |
| 20260506154738 | 66 | 326 | 12.0 | 25.0 | 0.00 | 0.00 | 0.00 | 93 | 1009.6 |
| 20260506154648 | 66 | 322 | 12.0 | 27.0 | 0.00 | 0.00 | 0.00 | 93 | 1009.6 |
| 20260506154525 | 66 | 316 | 13.0 | 27.0 | 0.00 | 0.00 | 0.00 | 93 | 1009.6 |
| 20260506154445 | 66 | 323 | 13.0 | 27.0 | 0.00 | 0.00 | 0.00 | 93 | 1009.6 |
| 20260506154343 | 66 | 309 | 15.0 | 27.0 | 0.00 | 0.00 | 0.00 | 93 | 1009.7 |
| 20260506154300 | 66 | 322 | 13.0 | 27.0 | 0.00 | 0.00 | 0.00 | 93 | 1009.7 |
| 20260506154138 | 66 | 318 | 14.0 | 29.0 | 0.00 | 0.00 | 0.00 | 93 | 1009.7 |
| 20260506154100 | 66 | 277 | 14.0 | 29.0 | 0.00 | 0.00 | 0.00 | 93 | 1009.7 |
| 20260506153958 | 66 | 299 | 13.0 | 29.0 | 0.00 | 0.00 | 0.00 | 93 | 1009.7 |
| 20260506153836 | 66 | 312 | 12.0 | 29.0 | 0.00 | 0.00 | 0.00 | 93 | 1009.7 |
| 20260506153755 | 66 | 294 | 16.0 | 29.0 | 0.00 | 0.00 | 0.00 | 93 | 1009.7 |
| 20260506153633 | 66 | 326 | 14.0 | 29.0 | 0.00 | 0.00 | 0.00 | 93 | 1009.7 |
| 20260506153532 | 66 | 319 | 18.0 | 29.0 | 0.00 | 0.00 | 0.00 | 93 | 1009.7 |
| 20260506153449 | 66 | 312 | 14.0 | 29.0 | 0.00 | 0.00 | 0.00 | 93 | 1009.7 |
| 20260506153347 | 66 | 250 | 17.0 | 29.0 | 0.00 | 0.00 | 0.00 | 93 | 1009.7 |
| 20260506153245 | 66 | 328 | 10.0 | 25.0 | 0.00 | 0.00 | 0.00 | 93 | 1009.7 |
| 20260506153216 | 66 | 271 | 9.0 | 27.0 | 0.00 | 0.00 | 0.00 | 93 | 1009.7 |
| 20260506153037 | 66 | 330 | 10.0 | 27.0 | 0.00 | 0.00 | 0.00 | 93 | 1009.7 |
| 20260506152935 | 66 | 301 | 12.0 | 27.0 | 0.00 | 0.00 | 0.00 | 93 | 1009.7 |
| 20260506152835 | 66 | 311 | 11.0 | 27.0 | 0.00 | 0.00 | 0.00 | 93 | 1009.5 |
| 20260506152732 | 66 | 320 | 14.0 | 27.0 | 0.00 | 0.00 | 0.00 | 93 | 1009.5 |
| 20260506152630 | 65 | 329 | 9.0 | 27.0 | 0.00 | 0.00 | 0.00 | 93 | 1009.5 |
| 20260506152527 | 65 | 316 | 14.0 | 27.0 | 0.00 | 0.00 | 0.00 | 93 | 1009.5 |
| 20260506152446 | 65 | 313 | 12.0 | 27.0 | 0.00 | 0.00 | 0.00 | 93 | 1009.5 |
| 20260506152343 | 65 | 320 | 13.0 | 27.0 | 0.00 | 0.00 | 0.00 | 93 | 1009.5 |
| 20260506152225 | 65 | 298 | 16.0 | 27.0 | 0.00 | 0.00 | 0.00 | 93 | 1009.5 |
| 20260506152124 | 65 | 330 | 19.0 | 27.0 | 0.00 | 0.00 | 0.00 | 93 | 1009.5 |
| 20260506152024 | 65 | 243 | 14.0 | 22.0 | 0.00 | 0.00 | 0.00 | 93 | 1009.5 |
| 20260506151942 | 65 | 296 | 14.0 | 22.0 | 0.00 | 0.00 | 0.00 | 93 | 1009.5 |
| 20260506151900 | 65 | 281 | 11.0 | 22.0 | 0.00 | 0.00 | 0.00 | 93 | 1009.5 |
| 20260506151737 | 65 | 241 | 9.0 | 22.0 | 0.00 | 0.00 | 0.00 | 93 | 1009.5 |
| 20260506151706 | 65 | 302 | 9.0 | 21.0 | 0.00 | 0.00 | 0.00 | 93 | 1009.5 |
| 20260506151603 | 65 | 301 | 12.0 | 22.0 | 0.00 | 0.00 | 0.00 | 93 | 1009.5 |
| 20260506151425 | 65 | 313 | 14.0 | 22.0 | 0.00 | 0.00 | 0.00 | 93 | 1009.5 |
| 20260506151324 | 65 | 270 | 10.0 | 24.0 | 0.00 | 0.00 | 0.00 | 93 | 1010.1 |
| 20260506151243 | 65 | 308 | 13.0 | 24.0 | 0.00 | 0.00 | 0.00 | 93 | 1010.1 |
| 20260506151141 | 65 | 304 | 12.0 | 24.0 | 0.00 | 0.00 | 0.00 | 93 | 1010.1 |
| 20260506151039 | 65 | 289 | 13.0 | 24.0 | 0.00 | 0.00 | 0.00 | 93 | 1010.1 |
| 20260506150940 | 65 | 277 | 12.0 | 24.0 | 0.00 | 0.00 | 0.00 | 93 | 1010.1 |
| 20260506150838 | 65 | 330 | 11.0 | 24.0 | 0.00 | 0.00 | 0.00 | 93 | 1010.1 |
| 20260506150800 | 65 | 325 | 12.0 | 24.0 | 0.00 | 0.00 | 0.00 | 93 | 1010.1 |
| 20260506150637 | 65 | 292 | 11.0 | 24.0 | 0.00 | 0.00 | 0.00 | 93 | 1010.1 |
| 20260506150535 | 65 | 308 | 13.0 | 24.0 | 0.00 | 0.00 | 0.00 | 93 | 1010.1 |
| 20260506150437 | 65 | 306 | 11.0 | 24.0 | 0.00 | 0.00 | 0.00 | 93 | 1010.1 |
| 20260506150335 | 65 | 320 | 8.0 | 24.0 | 0.00 | 0.00 | 0.00 | 93 | 1010.1 |
| 20260506150234 | 65 | 298 | 15.0 | 24.0 | 0.00 | 0.00 | 0.00 | 93 | 1010.1 |
| 20260506150204 | 65 | 308 | 16.0 | 24.0 | 0.00 | 0.00 | 0.00 | 93 | 1010.1 |
| 20260506150025 | 65 | 319 | 17.0 | 24.0 | 0.00 | 0.00 | 0.00 | 93 | 1010.1 |
| 20260506145924 | 65 | 241 | 14.0 | 24.0 | 0.00 | 0.00 | 0.00 | 93 | 1010.1 |
| 20260506145842 | 65 | 270 | 13.0 | 21.0 | 0.00 | 0.00 | 0.00 | 93 | 1010.1 |
| 20260506145740 | 65 | 295 | 11.0 | 22.0 | 0.00 | 0.00 | 0.00 | 93 | 1010.1 |
| 20260506145639 | 65 | 311 | 10.0 | 22.0 | 0.00 | 0.00 | 0.00 | 93 | 1010.1 |
| 20260506145537 | 65 | 313 | 8.0 | 22.0 | 0.00 | 0.00 | 0.00 | 93 | 1010.1 |
| 20260506145435 | 65 | 319 | 11.0 | 22.0 | 0.00 | 0.00 | 0.00 | 93 | 1010.1 |
| 20260506145337 | 65 | 289 | 12.0 | 22.0 | 0.00 | 0.00 | 0.00 | 93 | 1010.1 |
| 20260506145236 | 65 | 253 | 8.0 | 22.0 | 0.00 | 0.00 | 0.00 | 93 | 1010.1 |
| 20260506145135 | 65 | 294 | 7.0 | 22.0 | 0.00 | 0.00 | 0.00 | 93 | 1010.1 |
| 20260506145033 | 65 | 325 | 11.0 | 22.0 | 0.00 | 0.00 | 0.00 | 93 | 1010.1 |
| 20260506144952 | 65 | 304 | 9.0 | 22.0 | 0.00 | 0.00 | 0.00 | 93 | 1010.1 |
| 20260506144829 | 65 | 277 | 7.0 | 26.0 | 0.00 | 0.00 | 0.00 | 93 | 1010.1 |
| 20260506144759 | 65 | 322 | 16.0 | 26.0 | 0.00 | 0.00 | 0.00 | 93 | 1010.1 |
| 20260506144647 | 65 | 313 | 8.0 | 26.0 | 0.00 | 0.00 | 0.00 | 93 | 1010.1 |
| 20260506144549 | 65 | 312 | 10.0 | 26.0 | 0.00 | 0.00 | 0.00 | 93 | 1010.1 |
| 20260506144447 | 65 | 318 | 8.0 | 26.0 | 0.00 | 0.00 | 0.00 | 93 | 1010.1 |
| 20260506144343 | 65 | 288 | 13.0 | 26.0 | 0.00 | 0.00 | 0.00 | 93 | 1010.3 |
| 20260506144240 | 65 | 322 | 13.0 | 26.0 | 0.00 | 0.00 | 0.00 | 93 | 1010.3 |
| 20260506144140 | 65 | 311 | 12.0 | 26.0 | 0.00 | 0.00 | 0.00 | 93 | 1010.3 |
| 20260506144040 | 65 | 330 | 13.0 | 26.0 | 0.00 | 0.00 | 0.00 | 93 | 1010.3 |
| 20260506143938 | 65 | 257 | 9.0 | 22.0 | 0.00 | 0.00 | 0.00 | 93 | 1010.3 |
| 20260506143837 | 65 | 316 | 11.0 | 22.0 | 0.00 | 0.00 | 0.00 | 93 | 1010.3 |
| 20260506143739 | 65 | 280 | 13.0 | 22.0 | 0.00 | 0.00 | 0.00 | 93 | 1010.3 |
| 20260506143657 | 65 | 271 | 11.0 | 22.0 | 0.00 | 0.00 | 0.00 | 93 | 1010.3 |
| 20260506143535 | 65 | 326 | 10.0 | 20.0 | 0.00 | 0.00 | 0.00 | 93 | 1010.3 |
| 20260506143433 | 65 | 306 | 7.0 | 20.0 | 0.00 | 0.00 | 0.00 | 93 | 1010.3 |
| 20260506143352 | 65 | 244 | 11.0 | 20.0 | 0.00 | 0.00 | 0.00 | 92 | 1010.3 |
| 20260506143240 | 65 | 333 | 9.0 | 20.0 | 0.00 | 0.00 | 0.00 | 92 | 1010.3 |
| 20260506143150 | 64 | 318 | 10.0 | 20.0 | 0.00 | 0.00 | 0.00 | 92 | 1010.3 |
| 20260506143027 | 64 | 311 | 13.0 | 20.0 | 0.00 | 0.00 | 0.00 | 92 | 1010.3 |
| 20260506142930 | 64 | 319 | 9.0 | 17.0 | 0.00 | 0.00 | 0.00 | 92 | 1010.3 |
| 20260506142848 | 64 | 308 | 10.0 | 17.0 | 0.00 | 0.00 | 0.00 | 92 | 1010.1 |
| 20260506142726 | 64 | 326 | 11.0 | 17.0 | 0.00 | 0.00 | 0.00 | 92 | 1010.1 |
| 20260506142624 | 64 | 313 | 8.0 | 16.0 | 0.00 | 0.00 | 0.00 | 92 | 1010.1 |
| 20260506142543 | 64 | 285 | 10.0 | 16.0 | 0.00 | 0.00 | 0.00 | 92 | 1010.1 |
| 20260506142440 | 64 | 288 | 11.0 | 16.0 | 0.00 | 0.00 | 0.00 | 92 | 1010.1 |
| 20260506142359 | 64 | 291 | 10.0 | 16.0 | 0.00 | 0.00 | 0.00 | 92 | 1010.1 |
| 20260506142236 | 64 | 328 | 8.0 | 16.0 | 0.00 | 0.00 | 0.00 | 92 | 1010.1 |
| 20260506142137 | 64 | 312 | 8.0 | 16.0 | 0.00 | 0.00 | 0.00 | 92 | 1010.1 |
| 20260506142056 | 64 | 305 | 10.0 | 16.0 | 0.00 | 0.00 | 0.00 | 92 | 1010.1 |
| 20260506141933 | 64 | 272 | 10.0 | 16.0 | 0.00 | 0.00 | 0.00 | 92 | 1010.1 |
| 20260506141831 | 64 | 316 | 9.0 | 16.0 | 0.00 | 0.00 | 0.00 | 92 | 1010.1 |
| 20260506141750 | 64 | 328 | 8.0 | 16.0 | 0.00 | 0.00 | 0.00 | 92 | 1010.1 |
| 20260506141659 | 64 | 315 | 7.0 | 16.0 | 0.00 | 0.00 | 0.00 | 92 | 1010.1 |
| 20260506141536 | 64 | 322 | 9.0 | 16.0 | 0.00 | 0.00 | 0.00 | 92 | 1010.1 |
| 20260506141435 | 64 | 294 | 7.0 | 16.0 | 0.00 | 0.00 | 0.00 | 92 | 1010.1 |
| 20260506141334 | 64 | 325 | 8.0 | 16.0 | 0.00 | 0.00 | 0.00 | 92 | 1009.9 |
| 20260506141240 | 64 | 323 | 8.0 | 16.0 | 0.00 | 0.00 | 0.00 | 92 | 1009.9 |
| 20260506141138 | 64 | 313 | 8.0 | 16.0 | 0.00 | 0.00 | 0.00 | 92 | 1009.9 |
| 20260506141036 | 64 | 319 | 8.0 | 16.0 | 0.00 | 0.00 | 0.00 | 92 | 1009.9 |
| 20260506140933 | 64 | 323 | 9.0 | 16.0 | 0.00 | 0.00 | 0.00 | 92 | 1009.9 |
| 20260506140833 | 64 | 281 | 8.0 | 16.0 | 0.00 | 0.00 | 0.00 | 92 | 1009.9 |
| 20260506140753 | 64 | 325 | 9.0 | 16.0 | 0.00 | 0.00 | 0.00 | 92 | 1009.9 |
| 20260506140631 | 64 | 326 | 9.0 | 16.0 | 0.00 | 0.00 | 0.00 | 92 | 1009.9 |
| 20260506140533 | 64 | 308 | 9.0 | 16.0 | 0.00 | 0.00 | 0.00 | 92 | 1009.9 |
| 20260506140432 | 64 | 291 | 9.0 | 16.0 | 0.00 | 0.00 | 0.00 | 92 | 1009.9 |
| 20260506140352 | 64 | 287 | 9.0 | 16.0 | 0.00 | 0.00 | 0.00 | 92 | 1009.9 |
| 20260506140230 | 64 | 304 | 5.0 | 16.0 | 0.00 | 0.00 | 0.00 | 92 | 1009.9 |
| 20260506140201 | 64 | 254 | 6.0 | 16.0 | 0.00 | 0.00 | 0.00 | 92 | 1009.9 |
| 20260506140058 | 64 | 320 | 5.0 | 16.0 | 0.00 | 0.00 | 0.00 | 92 | 1009.9 |
| 20260506135935 | 64 | 311 | 4.0 | 11.0 | 0.00 | 0.00 | 0.00 | 92 | 1009.9 |
| 20260506135833 | 64 | 275 | 6.0 | 13.0 | 0.00 | 0.00 | 0.00 | 92 | 1009.6 |
| 20260506135735 | 64 | 284 | 7.0 | 13.0 | 0.00 | 0.00 | 0.00 | 92 | 1009.6 |
| 20260506135634 | 64 | 313 | 6.0 | 16.0 | 0.00 | 0.00 | 0.00 | 92 | 1009.6 |
| 20260506135534 | 64 | 277 | 6.0 | 16.0 | 0.00 | 0.00 | 0.00 | 92 | 1009.6 |
| 20260506135454 | 64 | 267 | 4.0 | 16.0 | 0.00 | 0.00 | 0.00 | 92 | 1009.6 |
| 20260506135330 | 64 | 268 | 5.0 | 16.0 | 0.00 | 0.00 | 0.00 | 92 | 1009.6 |
| 20260506135230 | 64 | 313 | 6.0 | 16.0 | 0.00 | 0.00 | 0.00 | 92 | 1009.6 |
| 20260506135129 | 64 | 271 | 8.0 | 16.0 | 0.00 | 0.00 | 0.00 | 91 | 1009.6 |
| 20260506135051 | 64 | 315 | 7.0 | 16.0 | 0.00 | 0.00 | 0.00 | 91 | 1009.6 |
| 20260506134928 | 64 | 240 | 8.0 | 16.0 | 0.00 | 0.00 | 0.00 | 92 | 1009.6 |
| 20260506134827 | 64 | 316 | 8.0 | 16.0 | 0.00 | 0.00 | 0.00 | 91 | 1009.6 |
| 20260506134729 | 64 | 280 | 10.0 | 16.0 | 0.00 | 0.00 | 0.00 | 91 | 1009.6 |
| 20260506134658 | 64 | 271 | 4.0 | 11.0 | 0.00 | 0.00 | 0.00 | 91 | 1009.6 |
| 20260506134536 | 64 | 213 | 2.0 | 12.0 | 0.00 | 0.00 | 0.00 | 91 | 1009.6 |
| 20260506134435 | 64 | 198 | 5.0 | 12.0 | 0.00 | 0.00 | 0.00 | 91 | 1009.6 |
| 20260506134353 | 64 | 217 | 7.0 | 19.0 | 0.00 | 0.00 | 0.00 | 91 | 1010.6 |
| 20260506134234 | 64 | 220 | 4.0 | 19.0 | 0.00 | 0.00 | 0.00 | 91 | 1010.6 |
| 20260506134133 | 64 | 330 | 3.0 | 19.0 | 0.00 | 0.00 | 0.00 | 91 | 1010.6 |
| 20260506134032 | 64 | 322 | 3.0 | 19.0 | 0.00 | 0.00 | 0.00 | 91 | 1010.6 |
| 20260506133930 | 64 | 328 | 2.0 | 19.0 | 0.00 | 0.00 | 0.00 | 91 | 1010.6 |
| 20260506133829 | 64 | 302 | 0.0 | 19.0 | 0.00 | 0.00 | 0.00 | 91 | 1010.6 |
| 20260506133728 | 64 | 329 | 5.0 | 19.0 | 0.00 | 0.00 | 0.00 | 90 | 1010.6 |
| 20260506133631 | 64 | 326 | 8.0 | 19.0 | 0.00 | 0.00 | 0.00 | 90 | 1010.6 |
| 20260506133533 | 65 | 325 | 10.0 | 19.0 | 0.00 | 0.00 | 0.00 | 90 | 1010.6 |
| 20260506133430 | 65 | 330 | 14.0 | 19.0 | 0.00 | 0.00 | 0.00 | 90 | 1010.6 |
| 20260506133349 | 65 | 328 | 9.0 | 18.0 | 0.00 | 0.00 | 0.00 | 90 | 1010.6 |
| 20260506133237 | 65 | 311 | 7.0 | 13.0 | 0.00 | 0.00 | 0.00 | 90 | 1010.6 |
| 20260506133148 | 65 | 316 | 3.0 | 13.0 | 0.00 | 0.00 | 0.00 | 89 | 1010.6 |
| 20260506133025 | 65 | 323 | 2.0 | 13.0 | 0.00 | 0.00 | 0.00 | 89 | 1010.6 |
| 20260506132924 | 65 | 319 | 4.0 | 13.0 | 0.00 | 0.00 | 0.00 | 89 | 1010.6 |
| 20260506132826 | 65 | 309 | 3.0 | 13.0 | 0.00 | 0.00 | 0.00 | 89 | 1010.4 |
| 20260506132725 | 65 | 319 | 3.0 | 13.0 | 0.00 | 0.00 | 0.00 | 89 | 1010.4 |
| 20260506132644 | 65 | 328 | 4.0 | 13.0 | 0.00 | 0.00 | 0.00 | 89 | 1010.4 |
| 20260506132601 | 65 | 323 | 7.0 | 13.0 | 0.00 | 0.00 | 0.00 | 89 | 1010.4 |
| 20260506132440 | 65 | 278 | 8.0 | 13.0 | 0.00 | 0.00 | 0.00 | 89 | 1010.4 |
| 20260506132339 | 65 | 332 | 7.0 | 15.0 | 0.00 | 0.00 | 0.00 | 89 | 1010.4 |
| 20260506132238 | 65 | 323 | 4.0 | 16.0 | 0.00 | 0.00 | 0.00 | 89 | 1010.4 |
| 20260506132142 | 65 | 312 | 4.0 | 25.0 | 0.00 | 0.00 | 0.00 | 89 | 1010.4 |
| 20260506132039 | 65 | 333 | 3.0 | 25.0 | 0.00 | 0.00 | 0.00 | 89 | 1010.4 |
| 20260506131937 | 65 | 336 | 5.0 | 25.0 | 0.00 | 0.00 | 0.00 | 88 | 1010.4 |
| 20260506131836 | 65 | 318 | 6.0 | 25.0 | 0.00 | 0.00 | 0.00 | 88 | 1010.4 |
| 20260506131734 | 65 | 320 | 4.0 | 25.0 | 0.00 | 0.00 | 0.00 | 88 | 1010.4 |
| 20260506131703 | 65 | 270 | 5.0 | 25.0 | 0.00 | 0.00 | 0.00 | 88 | 1010.4 |
| 20260506131540 | 65 | 305 | 7.0 | 25.0 | 0.00 | 0.00 | 0.00 | 88 | 1010.4 |
| 20260506131443 | 65 | 320 | 9.0 | 25.0 | 0.00 | 0.00 | 0.00 | 88 | 1010.4 |
| 20260506131341 | 65 | 311 | 14.0 | 25.0 | 0.00 | 0.00 | 0.00 | 88 | 1009.7 |
| 20260506131240 | 65 | 287 | 16.0 | 25.0 | 0.00 | 0.00 | 0.00 | 87 | 1009.7 |
| 20260506131137 | 65 | 261 | 11.0 | 22.0 | 0.00 | 0.00 | 0.00 | 87 | 1009.7 |
| 20260506131035 | 65 | 319 | 10.0 | 22.0 | 0.00 | 0.00 | 0.00 | 87 | 1009.7 |
| 20260506130933 | 65 | 233 | 11.0 | 22.0 | 0.00 | 0.00 | 0.00 | 87 | 1009.7 |
| 20260506130832 | 65 | 330 | 11.0 | 22.0 | 0.00 | 0.00 | 0.00 | 87 | 1009.7 |
| 20260506130731 | 65 | 316 | 13.0 | 24.0 | 0.00 | 0.00 | 0.00 | 87 | 1009.7 |
| 20260506130632 | 65 | 306 | 11.0 | 24.0 | 0.00 | 0.00 | 0.00 | 87 | 1009.7 |
| 20260506130531 | 65 | 330 | 13.0 | 24.0 | 0.00 | 0.00 | 0.00 | 87 | 1009.7 |
| 20260506130429 | 65 | 326 | 17.0 | 24.0 | 0.00 | 0.00 | 0.00 | 86 | 1009.7 |
| 20260506130327 | 65 | 308 | 15.0 | 24.0 | 0.00 | 0.00 | 0.00 | 86 | 1009.7 |
| 20260506130257 | 65 | 270 | 12.0 | 25.0 | 0.00 | 0.00 | 0.00 | 86 | 1009.7 |
| 20260506130146 | 65 | 316 | 9.0 | 25.0 | 0.00 | 0.00 | 0.00 | 86 | 1009.7 |
| 20260506130042 | 65 | 258 | 10.0 | 25.0 | 0.00 | 0.00 | 0.00 | 86 | 1009.7 |
| 20260506125925 | 65 | 326 | 16.0 | 26.0 | 0.00 | 0.00 | 0.00 | 86 | 1009.7 |
| 20260506125824 | 65 | 299 | 15.0 | 26.0 | 0.00 | 0.00 | 0.00 | 86 | 1009.5 |
| 20260506125743 | 65 | 304 | 12.0 | 26.0 | 0.00 | 0.00 | 0.00 | 86 | 1009.5 |
| 20260506125642 | 66 | 305 | 10.0 | 26.0 | 0.00 | 0.00 | 0.00 | 86 | 1009.5 |
| 20260506125540 | 66 | 328 | 8.0 | 26.0 | 0.00 | 0.00 | 0.00 | 85 | 1009.5 |
| 20260506125459 | 66 | 315 | 11.0 | 26.0 | 0.00 | 0.00 | 0.00 | 85 | 1009.5 |
| 20260506125354 | 66 | 306 | 17.0 | 26.0 | 0.00 | 0.00 | 0.00 | 85 | 1009.5 |
| 20260506125253 | 66 | 315 | 14.0 | 26.0 | 0.00 | 0.00 | 0.00 | 85 | 1009.5 |
| 20260506125151 | 66 | 291 | 15.0 | 26.0 | 0.00 | 0.00 | 0.00 | 85 | 1009.5 |
| 20260506125032 | 66 | 312 | 10.0 | 21.0 | 0.00 | 0.00 | 0.00 | 85 | 1009.5 |
| 20260506124930 | 66 | 328 | 13.0 | 22.0 | 0.00 | 0.00 | 0.00 | 85 | 1009.5 |
| 20260506124829 | 66 | 291 | 11.0 | 22.0 | 0.00 | 0.00 | 0.00 | 85 | 1009.5 |
| 20260506124729 | 66 | 258 | 17.0 | 22.0 | 0.00 | 0.00 | 0.00 | 85 | 1009.5 |
| 20260506124702 | 66 | 329 | 11.0 | 22.0 | 0.00 | 0.00 | 0.00 | 85 | 1009.5 |
| 20260506124541 | 66 | 315 | 12.0 | 22.0 | 0.00 | 0.00 | 0.00 | 84 | 1009.5 |
| 20260506124440 | 66 | 325 | 13.0 | 22.0 | 0.00 | 0.00 | 0.00 | 84 | 1009.5 |
| 20260506124343 | 66 | 322 | 15.0 | 22.0 | 0.00 | 0.00 | 0.00 | 84 | 1009.5 |
| 20260506124240 | 66 | 319 | 15.0 | 22.0 | 0.00 | 0.00 | 0.00 | 84 | 1009.5 |
| 20260506124138 | 66 | 312 | 15.0 | 22.0 | 0.00 | 0.00 | 0.00 | 84 | 1009.5 |
| 20260506124037 | 66 | 253 | 11.0 | 22.0 | 0.00 | 0.00 | 0.00 | 84 | 1009.5 |
| 20260506123935 | 66 | 294 | 9.0 | 22.0 | 0.00 | 0.00 | 0.00 | 84 | 1009.5 |
| 20260506123853 | 66 | 292 | 13.0 | 22.0 | 0.00 | 0.00 | 0.00 | 83 | 1009.5 |
| 20260506123751 | 66 | 330 | 13.0 | 22.0 | 0.00 | 0.00 | 0.00 | 83 | 1009.5 |
| 20260506123630 | 66 | 264 | 11.0 | 22.0 | 0.00 | 0.00 | 0.00 | 83 | 1009.5 |
| 20260506123532 | 66 | 295 | 11.0 | 22.0 | 0.00 | 0.00 | 0.00 | 83 | 1009.5 |
| 20260506123431 | 66 | 313 | 8.0 | 22.0 | 0.00 | 0.00 | 0.00 | 83 | 1009.5 |
| 20260506123329 | 66 | 264 | 15.0 | 22.0 | 0.00 | 0.00 | 0.00 | 83 | 1009.5 |
| 20260506123240 | 66 | 305 | 18.0 | 22.0 | 0.00 | 0.00 | 0.00 | 83 | 1009.5 |
| 20260506123149 | 66 | 302 | 13.0 | 22.0 | 0.00 | 0.00 | 0.00 | 83 | 1009.5 |
| 20260506123026 | 66 | 295 | 10.0 | 22.0 | 0.00 | 0.00 | 0.00 | 83 | 1009.5 |
| 20260506122945 | 66 | 301 | 10.0 | 22.0 | 0.00 | 0.00 | 0.00 | 83 | 1009.5 |
| 20260506122826 | 66 | 312 | 13.0 | 22.0 | 0.00 | 0.00 | 0.00 | 83 | 1008.8 |
| 20260506122725 | 66 | 329 | 12.0 | 22.0 | 0.00 | 0.00 | 0.00 | 83 | 1008.8 |
| 20260506122643 | 66 | 320 | 13.0 | 22.0 | 0.00 | 0.00 | 0.00 | 83 | 1008.8 |
| 20260506122540 | 66 | 322 | 13.0 | 22.0 | 0.00 | 0.00 | 0.00 | 83 | 1008.8 |
| 20260506122439 | 66 | 318 | 12.0 | 20.0 | 0.00 | 0.00 | 0.00 | 83 | 1008.8 |
| 20260506122338 | 66 | 274 | 14.0 | 20.0 | 0.00 | 0.00 | 0.00 | 83 | 1008.8 |
| 20260506122237 | 66 | 315 | 10.0 | 19.0 | 0.00 | 0.00 | 0.00 | 83 | 1008.8 |
| 20260506122137 | 66 | 311 | 8.0 | 19.0 | 0.00 | 0.00 | 0.00 | 83 | 1008.8 |
| 20260506122041 | 66 | 329 | 8.0 | 19.0 | 0.00 | 0.00 | 0.00 | 83 | 1008.8 |
| 20260506121959 | 66 | 265 | 9.0 | 20.0 | 0.00 | 0.00 | 0.00 | 83 | 1008.8 |
| 20260506121837 | 66 | 302 | 12.0 | 21.0 | 0.00 | 0.00 | 0.00 | 83 | 1008.8 |
| 20260506121736 | 66 | 301 | 12.0 | 21.0 | 0.00 | 0.00 | 0.00 | 83 | 1008.8 |
| 20260506121704 | 66 | 315 | 11.0 | 21.0 | 0.00 | 0.00 | 0.00 | 83 | 1008.8 |
| 20260506121540 | 66 | 318 | 13.0 | 21.0 | 0.00 | 0.00 | 0.00 | 83 | 1008.8 |
| 20260506121458 | 66 | 299 | 11.0 | 21.0 | 0.00 | 0.00 | 0.00 | 83 | 1008.8 |
| 20260506121336 | 66 | 309 | 12.0 | 21.0 | 0.00 | 0.00 | 0.00 | 83 | 1008.8 |
| 20260506121239 | 66 | 309 | 12.0 | 21.0 | 0.00 | 0.00 | 0.00 | 83 | 1008.8 |
| 20260506121158 | 66 | 281 | 13.0 | 21.0 | 0.00 | 0.00 | 0.00 | 83 | 1008.8 |
| 20260506121036 | 66 | 304 | 13.0 | 21.0 | 0.00 | 0.00 | 0.00 | 83 | 1008.8 |
| 20260506120936 | 66 | 304 | 12.0 | 21.0 | 0.00 | 0.00 | 0.00 | 83 | 1008.8 |
| 20260506120833 | 66 | 329 | 13.0 | 21.0 | 0.00 | 0.00 | 0.00 | 83 | 1008.8 |
| 20260506120732 | 66 | 304 | 16.0 | 21.0 | 0.00 | 0.00 | 0.00 | 83 | 1008.8 |
| 20260506120630 | 66 | 267 | 12.0 | 21.0 | 0.00 | 0.00 | 0.00 | 82 | 1008.8 |
| 20260506120529 | 66 | 296 | 12.0 | 21.0 | 0.00 | 0.00 | 0.00 | 82 | 1008.8 |
| 20260506120432 | 66 | 323 | 11.0 | 21.0 | 0.00 | 0.00 | 0.00 | 82 | 1008.8 |
| 20260506120331 | 66 | 268 | 12.0 | 21.0 | 0.00 | 0.00 | 0.00 | 82 | 1008.8 |
| 20260506120241 | 66 | 264 | 13.0 | 25.0 | 0.00 | 0.00 | 0.00 | 82 | 1008.8 |
| 20260506120151 | 66 | 257 | 14.0 | 25.0 | 0.00 | 0.00 | 0.00 | 82 | 1008.8 |
| 20260506120026 | 66 | 323 | 11.0 | 25.0 | 0.00 | 0.00 | 0.00 | 82 | 1008.8 |
| 20260506115945 | 66 | 320 | 12.0 | 25.0 | 0.00 | 0.00 | 0.00 | 82 | 1008.8 |
| 20260506115843 | 66 | 270 | 13.0 | 25.0 | 0.00 | 0.00 | 0.00 | 82 | 1008.6 |
| 20260506115725 | 66 | 267 | 6.0 | 25.0 | 0.00 | 0.00 | 0.00 | 82 | 1008.6 |
| 20260506115624 | 66 | 315 | 14.0 | 25.0 | 0.00 | 0.00 | 0.00 | 82 | 1008.6 |
| 20260506115543 | 66 | 330 | 13.0 | 25.0 | 0.00 | 0.00 | 0.00 | 82 | 1008.6 |
| 20260506115441 | 66 | 302 | 18.0 | 25.0 | 0.00 | 0.00 | 0.00 | 82 | 1008.6 |
| 20260506115339 | 66 | 329 | 13.0 | 22.0 | 0.00 | 0.00 | 0.00 | 82 | 1008.6 |
| 20260506115238 | 66 | 316 | 10.0 | 20.0 | 0.00 | 0.00 | 0.00 | 82 | 1008.6 |
| 20260506115156 | 66 | 318 | 11.0 | 20.0 | 0.00 | 0.00 | 0.00 | 82 | 1008.6 |
| 20260506115034 | 66 | 288 | 13.0 | 20.0 | 0.00 | 0.00 | 0.00 | 82 | 1008.6 |
| 20260506114936 | 66 | 322 | 9.0 | 17.0 | 0.00 | 0.00 | 0.00 | 82 | 1008.6 |
| 20260506114834 | 66 | 326 | 6.0 | 17.0 | 0.00 | 0.00 | 0.00 | 82 | 1008.6 |
| 20260506114752 | 66 | 296 | 9.0 | 17.0 | 0.00 | 0.00 | 0.00 | 82 | 1008.6 |
| 20260506114723 | 66 | 319 | 10.0 | 20.0 | 0.00 | 0.00 | 0.00 | 82 | 1008.6 |
| 20260506114559 | 66 | 325 | 10.0 | 20.0 | 0.00 | 0.00 | 0.00 | 82 | 1008.6 |
| 20260506114435 | 66 | 282 | 10.0 | 20.0 | 0.00 | 0.00 | 0.00 | 82 | 1008.6 |
| 20260506114334 | 66 | 296 | 10.0 | 27.0 | 0.00 | 0.00 | 0.00 | 82 | 1008.3 |
| 20260506114253 | 66 | 323 | 11.0 | 27.0 | 0.00 | 0.00 | 0.00 | 82 | 1008.3 |
| 20260506114133 | 66 | 323 | 14.0 | 27.0 | 0.00 | 0.00 | 0.00 | 82 | 1008.3 |
| 20260506114051 | 66 | 312 | 6.0 | 27.0 | 0.00 | 0.00 | 0.00 | 82 | 1008.3 |
| 20260506113933 | 66 | 325 | 8.0 | 27.0 | 0.00 | 0.00 | 0.00 | 82 | 1008.3 |
| 20260506113831 | 66 | 328 | 8.0 | 27.0 | 0.00 | 0.00 | 0.00 | 82 | 1008.3 |
| 20260506113730 | 66 | 285 | 11.0 | 27.0 | 0.00 | 0.00 | 0.00 | 82 | 1008.3 |
| 20260506113628 | 66 | 326 | 7.0 | 27.0 | 0.00 | 0.00 | 0.00 | 82 | 1008.3 |
| 20260506113527 | 66 | 294 | 15.0 | 27.0 | 0.00 | 0.00 | 0.00 | 81 | 1008.3 |
| 20260506113425 | 66 | 328 | 14.0 | 22.0 | 0.00 | 0.00 | 0.00 | 81 | 1008.3 |
| 20260506113327 | 66 | 292 | 10.0 | 22.0 | 0.00 | 0.00 | 0.00 | 81 | 1008.3 |
| 20260506113237 | 66 | 323 | 16.0 | 22.0 | 0.00 | 0.00 | 0.00 | 81 | 1008.3 |
| 20260506113146 | 66 | 316 | 12.0 | 21.0 | 0.00 | 0.00 | 0.00 | 81 | 1008.3 |
| 20260506113043 | 66 | 318 | 13.0 | 22.0 | 0.00 | 0.00 | 0.00 | 81 | 1008.3 |
| 20260506112942 | 66 | 272 | 13.0 | 22.0 | 0.00 | 0.00 | 0.00 | 81 | 1008.3 |
| 20260506112841 | 66 | 325 | 13.0 | 22.0 | 0.00 | 0.00 | 0.00 | 81 | 1008.1 |
| 20260506112739 | 66 | 326 | 7.0 | 22.0 | 0.00 | 0.00 | 0.00 | 81 | 1008.1 |
| 20260506112637 | 66 | 328 | 9.0 | 22.0 | 0.00 | 0.00 | 0.00 | 81 | 1008.1 |
| 20260506112539 | 66 | 308 | 9.0 | 22.0 | 0.00 | 0.00 | 0.00 | 81 | 1008.1 |
| 20260506112438 | 66 | 313 | 10.0 | 22.0 | 0.00 | 0.00 | 0.00 | 81 | 1008.1 |
| 20260506112336 | 66 | 288 | 11.0 | 22.0 | 0.00 | 0.00 | 0.00 | 81 | 1008.1 |
| 20260506112235 | 66 | 323 | 18.0 | 22.0 | 0.00 | 0.00 | 0.00 | 81 | 1008.1 |
| 20260506112154 | 66 | 316 | 16.0 | 21.0 | 0.00 | 0.00 | 0.00 | 81 | 1008.1 |
| 20260506112031 | 66 | 319 | 11.0 | 19.0 | 0.00 | 0.00 | 0.00 | 81 | 1008.1 |
| 20260506111929 | 66 | 291 | 13.0 | 19.0 | 0.00 | 0.00 | 0.00 | 81 | 1008.1 |
| 20260506111847 | 66 | 323 | 13.0 | 19.0 | 0.00 | 0.00 | 0.00 | 81 | 1008.1 |
| 20260506111806 | 66 | 320 | 10.0 | 19.0 | 0.00 | 0.00 | 0.00 | 81 | 1008.1 |
| 20260506111717 | 66 | 322 | 10.0 | 19.0 | 0.00 | 0.00 | 0.00 | 81 | 1008.1 |
| 20260506111535 | 66 | 328 | 11.0 | 19.0 | 0.00 | 0.00 | 0.00 | 81 | 1008.1 |
| 20260506111433 | 66 | 322 | 12.0 | 19.0 | 0.00 | 0.00 | 0.00 | 81 | 1008.1 |
| 20260506111332 | 66 | 305 | 8.0 | 20.0 | 0.00 | 0.00 | 0.00 | 81 | 1007.6 |
| 20260506111231 | 66 | 295 | 10.0 | 20.0 | 0.00 | 0.00 | 0.00 | 81 | 1007.6 |
| 20260506111131 | 66 | 301 | 10.0 | 20.0 | 0.00 | 0.00 | 0.00 | 81 | 1007.6 |
| 20260506111031 | 66 | 234 | 11.0 | 20.0 | 0.00 | 0.00 | 0.00 | 81 | 1007.6 |
| 20260506110949 | 66 | 315 | 8.0 | 20.0 | 0.00 | 0.00 | 0.00 | 81 | 1007.6 |
| 20260506110831 | 66 | 272 | 10.0 | 26.0 | 0.00 | 0.00 | 0.00 | 81 | 1007.6 |
| 20260506110729 | 66 | 287 | 10.0 | 26.0 | 0.00 | 0.00 | 0.00 | 81 | 1007.6 |
| 20260506110627 | 66 | 302 | 16.0 | 28.0 | 0.00 | 0.00 | 0.00 | 81 | 1007.6 |
| 20260506110525 | 66 | 299 | 13.0 | 28.0 | 0.00 | 0.00 | 0.00 | 81 | 1007.6 |
| 20260506110443 | 66 | 298 | 10.0 | 28.0 | 0.00 | 0.00 | 0.00 | 81 | 1007.6 |
| 20260506110342 | 66 | 315 | 10.0 | 28.0 | 0.00 | 0.00 | 0.00 | 81 | 1007.6 |
| 20260506110242 | 66 | 301 | 11.0 | 28.0 | 0.00 | 0.00 | 0.00 | 81 | 1007.6 |
| 20260506110212 | 66 | 295 | 9.0 | 28.0 | 0.00 | 0.00 | 0.00 | 81 | 1007.6 |
| 20260506110052 | 66 | 311 | 14.0 | 28.0 | 0.00 | 0.00 | 0.00 | 80 | 1007.6 |
| 20260506105929 | 66 | 313 | 11.0 | 28.0 | 0.00 | 0.00 | 0.00 | 80 | 1007.6 |
| 20260506105831 | 66 | 296 | 16.0 | 28.0 | 0.00 | 0.00 | 0.00 | 80 | 1007.8 |
| 20260506105733 | 66 | 295 | 18.0 | 26.0 | 0.00 | 0.00 | 0.00 | 80 | 1007.8 |
| 20260506105652 | 66 | 302 | 13.0 | 26.0 | 0.00 | 0.00 | 0.00 | 80 | 1007.8 |
| 20260506105529 | 66 | 222 | 12.0 | 26.0 | 0.00 | 0.00 | 0.00 | 80 | 1007.8 |
| 20260506105429 | 66 | 318 | 16.0 | 26.0 | 0.00 | 0.00 | 0.00 | 80 | 1007.8 |
| 20260506105334 | 66 | 295 | 18.0 | 26.0 | 0.00 | 0.00 | 0.00 | 80 | 1007.8 |
| 20260506105231 | 66 | 287 | 10.0 | 24.0 | 0.00 | 0.00 | 0.00 | 80 | 1007.8 |
| 20260506105131 | 66 | 301 | 14.0 | 24.0 | 0.00 | 0.00 | 0.00 | 80 | 1007.8 |
| 20260506105029 | 66 | 311 | 16.0 | 24.0 | 0.00 | 0.00 | 0.00 | 80 | 1007.8 |
| 20260506104927 | 66 | 287 | 9.0 | 24.0 | 0.00 | 0.00 | 0.00 | 80 | 1007.8 |
| 20260506104824 | 66 | 278 | 14.0 | 24.0 | 0.00 | 0.00 | 0.00 | 80 | 1007.8 |
| 20260506104724 | 66 | 302 | 19.0 | 24.0 | 0.00 | 0.00 | 0.00 | 80 | 1007.8 |
| 20260506104654 | 66 | 282 | 12.0 | 21.0 | 0.00 | 0.00 | 0.00 | 80 | 1007.8 |
| 20260506104555 | 66 | 250 | 13.0 | 21.0 | 0.00 | 0.00 | 0.00 | 80 | 1007.8 |
| 20260506104433 | 66 | 292 | 14.0 | 21.0 | 0.00 | 0.00 | 0.00 | 80 | 1007.8 |
| 20260506104332 | 66 | 308 | 15.0 | 25.0 | 0.00 | 0.00 | 0.00 | 80 | 1007.5 |
| 20260506104231 | 66 | 298 | 12.0 | 25.0 | 0.00 | 0.00 | 0.00 | 80 | 1007.5 |
| 20260506104128 | 66 | 313 | 9.0 | 25.0 | 0.00 | 0.00 | 0.00 | 80 | 1007.5 |
| 20260506104025 | 66 | 281 | 10.0 | 26.0 | 0.00 | 0.00 | 0.00 | 80 | 1007.5 |
| 20260506103943 | 66 | 313 | 13.0 | 26.0 | 0.00 | 0.00 | 0.00 | 80 | 1007.5 |
| 20260506103842 | 66 | 326 | 15.0 | 28.0 | 0.00 | 0.00 | 0.00 | 80 | 1007.5 |
| 20260506103800 | 66 | 294 | 13.0 | 28.0 | 0.00 | 0.00 | 0.00 | 80 | 1007.5 |
| 20260506103643 | 66 | 329 | 14.0 | 28.0 | 0.00 | 0.00 | 0.00 | 80 | 1007.5 |
| 20260506103601 | 66 | 322 | 17.0 | 28.0 | 0.00 | 0.00 | 0.00 | 80 | 1007.5 |
| 20260506103336 | 66 | 306 | 18.0 | 28.0 | 0.00 | 0.00 | 0.00 | 80 | 1007.5 |
| 20260506103234 | 66 | 323 | 21.0 | 28.0 | 0.00 | 0.00 | 0.00 | 80 | 1007.5 |
| 20260506103205 | 66 | 333 | 15.0 | 28.0 | 0.00 | 0.00 | 0.00 | 80 | 1007.5 |
| 20260506103043 | 66 | 320 | 18.0 | 28.0 | 0.00 | 0.00 | 0.00 | 80 | 1007.5 |
| 20260506102926 | 66 | 322 | 18.0 | 28.0 | 0.00 | 0.00 | 0.00 | 80 | 1007.5 |
| 20260506102826 | 66 | 318 | 17.0 | 27.0 | 0.00 | 0.00 | 0.00 | 80 | 1007.5 |
| 20260506102724 | 66 | 315 | 8.0 | 27.0 | 0.00 | 0.00 | 0.00 | 80 | 1007.5 |
| 20260506102643 | 66 | 320 | 12.0 | 27.0 | 0.00 | 0.00 | 0.00 | 80 | 1007.5 |
| 20260506102542 | 66 | 326 | 12.0 | 27.0 | 0.00 | 0.00 | 0.00 | 80 | 1007.5 |
| 20260506102440 | 66 | 291 | 15.0 | 27.0 | 0.00 | 0.00 | 0.00 | 80 | 1007.5 |
| 20260506102339 | 66 | 309 | 10.0 | 26.0 | 0.00 | 0.00 | 0.00 | 80 | 1007.5 |
| 20260506102241 | 66 | 322 | 12.0 | 26.0 | 0.00 | 0.00 | 0.00 | 80 | 1007.5 |
| 20260506102139 | 66 | 316 | 13.0 | 26.0 | 0.00 | 0.00 | 0.00 | 80 | 1007.5 |
| 20260506102039 | 66 | 319 | 10.0 | 26.0 | 0.00 | 0.00 | 0.00 | 80 | 1007.5 |
| 20260506101938 | 66 | 284 | 8.0 | 26.0 | 0.00 | 0.00 | 0.00 | 80 | 1007.5 |
| 20260506101856 | 66 | 308 | 6.0 | 26.0 | 0.00 | 0.00 | 0.00 | 80 | 1007.5 |
| 20260506101732 | 66 | 291 | 8.0 | 26.0 | 0.00 | 0.00 | 0.00 | 80 | 1007.5 |
| 20260506101703 | 66 | 319 | 9.0 | 26.0 | 0.00 | 0.00 | 0.00 | 80 | 1007.5 |
| 20260506101601 | 66 | 311 | 12.0 | 26.0 | 0.00 | 0.00 | 0.00 | 79 | 1007.5 |
| 20260506101443 | 66 | 322 | 15.0 | 26.0 | 0.00 | 0.00 | 0.00 | 79 | 1007.5 |
| 20260506101342 | 66 | 326 | 12.0 | 24.0 | 0.00 | 0.00 | 0.00 | 79 | 1007.3 |
| 20260506101241 | 66 | 322 | 6.0 | 22.0 | 0.00 | 0.00 | 0.00 | 79 | 1007.3 |
| 20260506101159 | 66 | 315 | 8.0 | 22.0 | 0.00 | 0.00 | 0.00 | 79 | 1007.3 |
| 20260506101037 | 66 | 301 | 10.0 | 22.0 | 0.00 | 0.00 | 0.00 | 79 | 1007.3 |
| 20260506100935 | 66 | 325 | 9.0 | 22.0 | 0.00 | 0.00 | 0.00 | 79 | 1007.3 |
| 20260506100834 | 66 | 305 | 15.0 | 22.0 | 0.00 | 0.00 | 0.00 | 79 | 1007.3 |
| 20260506100736 | 66 | 288 | 13.0 | 27.0 | 0.00 | 0.00 | 0.00 | 79 | 1007.3 |
| 20260506100654 | 66 | 268 | 13.0 | 27.0 | 0.00 | 0.00 | 0.00 | 79 | 1007.3 |
| 20260506100531 | 66 | 230 | 8.0 | 27.0 | 0.00 | 0.00 | 0.00 | 79 | 1007.3 |
| 20260506100450 | 66 | 299 | 12.0 | 27.0 | 0.00 | 0.00 | 0.00 | 79 | 1007.3 |
| 20260506100327 | 66 | 298 | 8.0 | 27.0 | 0.00 | 0.00 | 0.00 | 79 | 1007.3 |
| 20260506100236 | 66 | 328 | 15.0 | 27.0 | 0.00 | 0.00 | 0.00 | 79 | 1007.3 |
| 20260506100146 | 66 | 309 | 10.0 | 27.0 | 0.00 | 0.00 | 0.00 | 79 | 1007.3 |
| 20260506100041 | 66 | 322 | 13.0 | 27.0 | 0.00 | 0.00 | 0.00 | 79 | 1007.3 |
| 20260506095925 | 66 | 312 | 18.0 | 27.0 | 0.00 | 0.00 | 0.00 | 79 | 1007.3 |
| 20260506095842 | 66 | 329 | 10.0 | 21.0 | 0.00 | 0.00 | 0.00 | 79 | 1007.1 |
| 20260506095741 | 66 | 272 | 13.0 | 21.0 | 0.00 | 0.00 | 0.00 | 79 | 1007.1 |
| 20260506095640 | 66 | 292 | 9.0 | 20.0 | 0.00 | 0.00 | 0.00 | 79 | 1007.1 |
| 20260506095538 | 66 | 291 | 9.0 | 20.0 | 0.00 | 0.00 | 0.00 | 79 | 1007.1 |
| 20260506095436 | 66 | 280 | 11.0 | 20.0 | 0.00 | 0.00 | 0.00 | 79 | 1007.1 |
| 20260506095355 | 66 | 270 | 15.0 | 20.0 | 0.00 | 0.00 | 0.00 | 79 | 1007.1 |
| 20260506095232 | 66 | 312 | 13.0 | 20.0 | 0.00 | 0.00 | 0.00 | 79 | 1007.1 |
| 20260506095134 | 66 | 313 | 13.0 | 21.0 | 0.00 | 0.00 | 0.00 | 79 | 1007.1 |
| 20260506095032 | 66 | 309 | 11.0 | 21.0 | 0.00 | 0.00 | 0.00 | 79 | 1007.1 |
| 20260506094931 | 66 | 272 | 9.0 | 21.0 | 0.00 | 0.00 | 0.00 | 79 | 1007.1 |
| 20260506094828 | 66 | 313 | 11.0 | 21.0 | 0.00 | 0.00 | 0.00 | 79 | 1007.1 |
| 20260506094737 | 66 | 282 | 12.0 | 24.0 | 0.00 | 0.00 | 0.00 | 79 | 1007.1 |
| 20260506094646 | 66 | 306 | 14.0 | 24.0 | 0.00 | 0.00 | 0.00 | 79 | 1007.1 |
| 20260506094524 | 66 | 280 | 14.0 | 25.0 | 0.00 | 0.00 | 0.00 | 79 | 1007.1 |
| 20260506094447 | 66 | 288 | 12.0 | 25.0 | 0.00 | 0.00 | 0.00 | 79 | 1007.1 |
| 20260506094325 | 66 | 322 | 13.0 | 25.0 | 0.00 | 0.00 | 0.00 | 79 | 1007.0 |
| 20260506094243 | 66 | 309 | 13.0 | 25.0 | 0.00 | 0.00 | 0.00 | 79 | 1007.0 |
| 20260506094142 | 66 | 301 | 13.0 | 25.0 | 0.00 | 0.00 | 0.00 | 79 | 1007.0 |
| 20260506094043 | 66 | 309 | 10.0 | 25.0 | 0.00 | 0.00 | 0.00 | 79 | 1007.0 |
| 20260506094001 | 66 | 301 | 11.0 | 25.0 | 0.00 | 0.00 | 0.00 | 79 | 1007.0 |
| 20260506093838 | 66 | 267 | 15.0 | 25.0 | 0.00 | 0.00 | 0.00 | 79 | 1007.0 |
| 20260506093735 | 66 | 301 | 17.0 | 25.0 | 0.00 | 0.00 | 0.00 | 79 | 1007.0 |
| 20260506093637 | 66 | 291 | 15.0 | 25.0 | 0.00 | 0.00 | 0.00 | 79 | 1007.0 |
| 20260506093536 | 66 | 306 | 15.0 | 27.0 | 0.00 | 0.00 | 0.00 | 79 | 1007.0 |
| 20260506093433 | 66 | 288 | 17.0 | 27.0 | 0.00 | 0.00 | 0.00 | 79 | 1007.0 |
| 20260506093332 | 66 | 264 | 17.0 | 27.0 | 0.00 | 0.00 | 0.00 | 79 | 1007.0 |
| 20260506093230 | 66 | 312 | 14.0 | 27.0 | 0.00 | 0.00 | 0.00 | 79 | 1007.0 |
| 20260506093201 | 66 | 312 | 18.0 | 29.0 | 0.00 | 0.00 | 0.00 | 79 | 1007.0 |
| 20260506093037 | 66 | 306 | 14.0 | 29.0 | 0.00 | 0.00 | 0.00 | 79 | 1007.0 |
| 20260506092941 | 66 | 315 | 15.0 | 29.0 | 0.00 | 0.00 | 0.00 | 79 | 1007.0 |
| 20260506092840 | 66 | 313 | 14.0 | 29.0 | 0.00 | 0.00 | 0.00 | 79 | 1007.3 |
| 20260506092739 | 66 | 295 | 14.0 | 29.0 | 0.00 | 0.00 | 0.00 | 79 | 1007.3 |
| 20260506092638 | 66 | 316 | 14.0 | 29.0 | 0.00 | 0.00 | 0.00 | 79 | 1007.3 |
| 20260506092535 | 66 | 292 | 9.0 | 29.0 | 0.00 | 0.00 | 0.00 | 79 | 1007.3 |
| 20260506092433 | 66 | 291 | 14.0 | 29.0 | 0.00 | 0.00 | 0.00 | 79 | 1007.3 |
| 20260506092331 | 66 | 305 | 14.0 | 29.0 | 0.00 | 0.00 | 0.00 | 79 | 1007.3 |
| 20260506092233 | 66 | 258 | 10.0 | 24.0 | 0.00 | 0.00 | 0.00 | 78 | 1007.3 |
| 20260506092131 | 66 | 322 | 13.0 | 28.0 | 0.00 | 0.00 | 0.00 | 78 | 1007.3 |
| 20260506092029 | 66 | 309 | 14.0 | 28.0 | 0.00 | 0.00 | 0.00 | 78 | 1007.3 |
| 20260506091927 | 66 | 308 | 14.0 | 28.0 | 0.00 | 0.00 | 0.00 | 78 | 1007.3 |
| 20260506091826 | 66 | 313 | 12.0 | 28.0 | 0.00 | 0.00 | 0.00 | 78 | 1007.3 |
| 20260506091724 | 66 | 316 | 16.0 | 28.0 | 0.00 | 0.00 | 0.00 | 78 | 1007.3 |
| 20260506091651 | 66 | 309 | 10.0 | 28.0 | 0.00 | 0.00 | 0.00 | 78 | 1007.3 |
| 20260506091533 | 66 | 326 | 10.0 | 28.0 | 0.00 | 0.00 | 0.00 | 78 | 1007.3 |
| 20260506091453 | 66 | 329 | 11.0 | 28.0 | 0.00 | 0.00 | 0.00 | 78 | 1007.3 |
| 20260506091331 | 66 | 306 | 12.0 | 28.0 | 0.00 | 0.00 | 0.00 | 78 | 1007.2 |
| 20260506091229 | 66 | 295 | 18.0 | 28.0 | 0.00 | 0.00 | 0.00 | 77 | 1007.2 |
| 20260506091129 | 66 | 304 | 14.0 | 27.0 | 0.00 | 0.00 | 0.00 | 77 | 1007.2 |
| 20260506091046 | 66 | 312 | 12.0 | 27.0 | 0.00 | 0.00 | 0.00 | 77 | 1007.2 |
| 20260506090943 | 66 | 267 | 12.0 | 27.0 | 0.00 | 0.00 | 0.00 | 77 | 1007.2 |
| 20260506090843 | 66 | 298 | 17.0 | 27.0 | 0.00 | 0.00 | 0.00 | 77 | 1007.2 |
| 20260506090725 | 66 | 281 | 9.0 | 26.0 | 0.00 | 0.00 | 0.00 | 77 | 1007.2 |
| 20260506090643 | 66 | 287 | 8.0 | 26.0 | 0.00 | 0.00 | 0.00 | 77 | 1007.2 |
| 20260506090602 | 66 | 313 | 11.0 | 26.0 | 0.00 | 0.00 | 0.00 | 77 | 1007.2 |
| 20260506090439 | 66 | 281 | 17.0 | 26.0 | 0.00 | 0.00 | 0.00 | 77 | 1007.2 |
| 20260506090337 | 66 | 312 | 15.0 | 27.0 | 0.00 | 0.00 | 0.00 | 77 | 1007.2 |
| 20260506090255 | 66 | 277 | 14.0 | 27.0 | 0.00 | 0.00 | 0.00 | 77 | 1007.2 |
| 20260506090204 | 66 | 322 | 14.0 | 27.0 | 0.00 | 0.00 | 0.00 | 77 | 1007.2 |
| 20260506090041 | 66 | 318 | 13.0 | 27.0 | 0.00 | 0.00 | 0.00 | 77 | 1007.2 |
| 20260506085943 | 66 | 326 | 9.0 | 27.0 | 0.00 | 0.00 | 0.00 | 77 | 1007.2 |
| 20260506085841 | 66 | 311 | 11.0 | 27.0 | 0.00 | 0.00 | 0.00 | 77 | 1006.8 |
| 20260506085800 | 66 | 306 | 10.0 | 27.0 | 0.00 | 0.00 | 0.00 | 77 | 1006.8 |
| 20260506085638 | 66 | 309 | 10.0 | 27.0 | 0.00 | 0.00 | 0.00 | 77 | 1006.8 |
| 20260506085555 | 66 | 298 | 15.0 | 27.0 | 0.00 | 0.00 | 0.00 | 77 | 1006.8 |
| 20260506085433 | 66 | 322 | 18.0 | 27.0 | 0.00 | 0.00 | 0.00 | 77 | 1006.8 |
| 20260506085332 | 66 | 326 | 15.0 | 27.0 | 0.00 | 0.00 | 0.00 | 77 | 1006.8 |
| 20260506085250 | 66 | 325 | 15.0 | 27.0 | 0.00 | 0.00 | 0.00 | 77 | 1006.8 |
| 20260506085131 | 66 | 311 | 14.0 | 27.0 | 0.00 | 0.00 | 0.00 | 77 | 1006.8 |
| 20260506085030 | 66 | 313 | 10.0 | 27.0 | 0.00 | 0.00 | 0.00 | 77 | 1006.8 |
| 20260506084949 | 66 | 319 | 11.0 | 27.0 | 0.00 | 0.00 | 0.00 | 77 | 1006.8 |
| 20260506084827 | 66 | 322 | 16.0 | 27.0 | 0.00 | 0.00 | 0.00 | 76 | 1006.8 |
| 20260506084725 | 66 | 309 | 12.0 | 27.0 | 0.00 | 0.00 | 0.00 | 76 | 1006.8 |
| 20260506084653 | 66 | 253 | 17.0 | 27.0 | 0.00 | 0.00 | 0.00 | 76 | 1006.8 |
| 20260506084530 | 66 | 316 | 19.0 | 27.0 | 0.00 | 0.00 | 0.00 | 76 | 1006.8 |
| 20260506084426 | 66 | 302 | 14.0 | 26.0 | 0.00 | 0.00 | 0.00 | 76 | 1006.8 |
| 20260506084329 | 66 | 282 | 12.0 | 26.0 | 0.00 | 0.00 | 0.00 | 76 | 1006.9 |
| 20260506084246 | 66 | 311 | 15.0 | 30.0 | 0.00 | 0.00 | 0.00 | 75 | 1006.9 |
| 20260506084144 | 66 | 320 | 14.0 | 30.0 | 0.00 | 0.00 | 0.00 | 75 | 1006.9 |
| 20260506084042 | 66 | 318 | 14.0 | 30.0 | 0.00 | 0.00 | 0.00 | 75 | 1006.9 |
| 20260506083940 | 66 | 315 | 15.0 | 30.0 | 0.00 | 0.00 | 0.00 | 75 | 1006.9 |
| 20260506083838 | 66 | 320 | 14.0 | 30.0 | 0.00 | 0.00 | 0.00 | 75 | 1006.9 |
| 20260506083756 | 66 | 325 | 15.0 | 30.0 | 0.00 | 0.00 | 0.00 | 74 | 1006.9 |
| 20260506083633 | 66 | 328 | 17.0 | 30.0 | 0.00 | 0.00 | 0.00 | 74 | 1006.9 |
| 20260506083532 | 66 | 258 | 17.0 | 30.0 | 0.00 | 0.00 | 0.00 | 74 | 1006.9 |
| 20260506083434 | 66 | 281 | 15.0 | 30.0 | 0.00 | 0.00 | 0.00 | 74 | 1006.9 |
| 20260506083331 | 66 | 318 | 17.0 | 30.0 | 0.00 | 0.00 | 0.00 | 74 | 1006.9 |
| 20260506083244 | 66 | 329 | 15.0 | 30.0 | 0.00 | 0.00 | 0.00 | 74 | 1006.9 |
| 20260506083155 | 66 | 305 | 15.0 | 30.0 | 0.00 | 0.00 | 0.00 | 74 | 1006.9 |
| 20260506083032 | 66 | 311 | 13.0 | 31.0 | 0.00 | 0.00 | 0.00 | 74 | 1006.9 |
| 20260506082950 | 66 | 304 | 13.0 | 31.0 | 0.00 | 0.00 | 0.00 | 74 | 1006.9 |
| 20260506082847 | 66 | 302 | 16.0 | 31.0 | 0.00 | 0.00 | 0.00 | 74 | 1006.9 |
| 20260506082744 | 66 | 316 | 19.0 | 31.0 | 0.00 | 0.00 | 0.00 | 74 | 1006.9 |
| 20260506082626 | 66 | 288 | 15.0 | 31.0 | 0.00 | 0.00 | 0.00 | 74 | 1006.9 |
| 20260506082543 | 66 | 280 | 18.0 | 31.0 | 0.00 | 0.00 | 0.00 | 74 | 1006.9 |
| 20260506082502 | 66 | 325 | 13.0 | 31.0 | 0.00 | 0.00 | 0.00 | 74 | 1006.9 |
| 20260506082339 | 66 | 329 | 13.0 | 31.0 | 0.00 | 0.00 | 0.00 | 74 | 1006.9 |
| 20260506082238 | 66 | 323 | 17.0 | 31.0 | 0.00 | 0.00 | 0.00 | 74 | 1006.9 |
| 20260506082136 | 66 | 323 | 18.0 | 30.0 | 0.00 | 0.00 | 0.00 | 74 | 1006.9 |
| 20260506082033 | 66 | 311 | 17.0 | 29.0 | 0.00 | 0.00 | 0.00 | 74 | 1006.9 |
| 20260506081935 | 66 | 320 | 17.0 | 29.0 | 0.00 | 0.00 | 0.00 | 74 | 1006.9 |
| 20260506081834 | 66 | 298 | 19.0 | 29.0 | 0.00 | 0.00 | 0.00 | 73 | 1006.9 |
| 20260506081753 | 66 | 328 | 16.0 | 29.0 | 0.00 | 0.00 | 0.00 | 73 | 1006.9 |
| 20260506081705 | 66 | 291 | 14.0 | 27.0 | 0.00 | 0.00 | 0.00 | 73 | 1006.9 |
| 20260506081542 | 66 | 326 | 22.0 | 27.0 | 0.00 | 0.00 | 0.00 | 73 | 1006.9 |
| 20260506081501 | 66 | 311 | 17.0 | 26.0 | 0.00 | 0.00 | 0.00 | 73 | 1006.9 |
| 20260506081339 | 66 | 244 | 16.0 | 28.0 | 0.00 | 0.00 | 0.00 | 73 | 1006.7 |
| 20260506081237 | 66 | 275 | 16.0 | 28.0 | 0.00 | 0.00 | 0.00 | 73 | 1006.7 |
| 20260506081135 | 67 | 330 | 16.0 | 28.0 | 0.00 | 0.00 | 0.00 | 73 | 1006.7 |
| 20260506081036 | 67 | 313 | 16.0 | 28.0 | 0.00 | 0.00 | 0.00 | 73 | 1006.7 |
| 20260506080954 | 67 | 299 | 15.0 | 28.0 | 0.00 | 0.00 | 0.00 | 73 | 1006.7 |
| 20260506080853 | 67 | 320 | 16.0 | 28.0 | 0.00 | 0.00 | 0.00 | 73 | 1006.7 |
| 20260506080731 | 67 | 304 | 15.0 | 28.0 | 0.00 | 0.00 | 0.00 | 73 | 1006.7 |
| 20260506080649 | 67 | 311 | 17.0 | 28.0 | 0.00 | 0.00 | 0.00 | 73 | 1006.7 |
| 20260506080526 | 67 | 285 | 18.0 | 28.0 | 0.00 | 0.00 | 0.00 | 73 | 1006.7 |
| 20260506080424 | 67 | 319 | 17.0 | 28.0 | 0.00 | 0.00 | 0.00 | 73 | 1006.7 |
| 20260506080342 | 67 | 313 | 21.0 | 28.0 | 0.00 | 0.00 | 0.00 | 72 | 1006.7 |
| 20260506080236 | 67 | 320 | 15.0 | 26.0 | 0.00 | 0.00 | 0.00 | 72 | 1006.7 |
| 20260506080146 | 67 | 299 | 11.0 | 28.0 | 0.00 | 0.00 | 0.00 | 72 | 1006.7 |
| 20260506073438 | 67 | 280 | 15.0 | 26.0 | 0.00 | 0.00 | 0.00 | 71 | 1006.6 |
| 20260506073336 | 67 | 315 | 13.0 | 26.0 | 0.00 | 0.00 | 0.00 | 71 | 1006.6 |
| 20260506073235 | 67 | 318 | 16.0 | 28.0 | 0.00 | 0.00 | 0.00 | 71 | 1006.6 |
| 20260506073205 | 67 | 328 | 14.0 | 28.0 | 0.00 | 0.00 | 0.00 | 71 | 1006.6 |
| 20260506073026 | 67 | 272 | 17.0 | 28.0 | 0.00 | 0.00 | 0.00 | 71 | 1006.6 |
| 20260506072946 | 67 | 305 | 15.0 | 28.0 | 0.00 | 0.00 | 0.00 | 71 | 1006.6 |
| 20260506072904 | 67 | 301 | 14.0 | 28.0 | 0.00 | 0.00 | 0.00 | 71 | 1006.5 |
| 20260506072742 | 67 | 326 | 16.0 | 28.0 | 0.00 | 0.00 | 0.00 | 71 | 1006.5 |
| 20260506072641 | 67 | 323 | 10.0 | 28.0 | 0.00 | 0.00 | 0.00 | 71 | 1006.5 |
| 20260506072540 | 67 | 246 | 13.0 | 28.0 | 0.00 | 0.00 | 0.00 | 71 | 1006.5 |
| 20260506072439 | 67 | 326 | 17.0 | 28.0 | 0.00 | 0.00 | 0.00 | 71 | 1006.5 |
| 20260506072341 | 67 | 295 | 17.0 | 27.0 | 0.00 | 0.00 | 0.00 | 71 | 1006.5 |
| 20260506072241 | 67 | 292 | 19.0 | 28.0 | 0.00 | 0.00 | 0.00 | 71 | 1006.5 |
| 20260506072139 | 67 | 258 | 19.0 | 28.0 | 0.00 | 0.00 | 0.00 | 71 | 1006.5 |
| 20260506072037 | 67 | 285 | 17.0 | 28.0 | 0.00 | 0.00 | 0.00 | 71 | 1006.5 |
| 20260506071936 | 67 | 316 | 13.0 | 28.0 | 0.00 | 0.00 | 0.00 | 71 | 1006.5 |
| 20260506071834 | 67 | 305 | 15.0 | 28.0 | 0.00 | 0.00 | 0.00 | 71 | 1006.5 |
| 20260506071732 | 67 | 272 | 12.0 | 28.0 | 0.00 | 0.00 | 0.00 | 70 | 1006.5 |
| 20260506071706 | 67 | 298 | 14.0 | 28.0 | 0.00 | 0.00 | 0.00 | 70 | 1006.5 |
| 20260506071604 | 67 | 265 | 15.0 | 28.0 | 0.00 | 0.00 | 0.00 | 70 | 1006.5 |
| 20260506071441 | 67 | 239 | 15.0 | 28.0 | 0.00 | 0.00 | 0.00 | 70 | 1006.5 |
| 20260506071339 | 67 | 323 | 19.0 | 28.0 | 0.00 | 0.00 | 0.00 | 70 | 1006.4 |
| 20260506071241 | 67 | 288 | 16.0 | 24.0 | 0.00 | 0.00 | 0.00 | 70 | 1006.4 |
| 20260506071158 | 67 | 289 | 11.0 | 25.0 | 0.00 | 0.00 | 0.00 | 70 | 1006.4 |
| 20260506071055 | 67 | 274 | 9.0 | 27.0 | 0.00 | 0.00 | 0.00 | 70 | 1006.4 |
| 20260506070932 | 67 | 258 | 13.0 | 27.0 | 0.00 | 0.00 | 0.00 | 70 | 1006.4 |
| 20260506070831 | 67 | 326 | 13.0 | 27.0 | 0.00 | 0.00 | 0.00 | 70 | 1006.4 |
| 20260506070734 | 67 | 298 | 12.0 | 27.0 | 0.00 | 0.00 | 0.00 | 70 | 1006.4 |
| 20260506070634 | 67 | 323 | 13.0 | 27.0 | 0.00 | 0.00 | 0.00 | 70 | 1006.4 |
| 20260506070532 | 67 | 318 | 13.0 | 31.0 | 0.00 | 0.00 | 0.00 | 70 | 1006.4 |
| 20260506070430 | 67 | 312 | 11.0 | 31.0 | 0.00 | 0.00 | 0.00 | 70 | 1006.4 |
| 20260506070328 | 67 | 287 | 11.0 | 31.0 | 0.00 | 0.00 | 0.00 | 70 | 1006.4 |
| 20260506070238 | 67 | 320 | 19.0 | 31.0 | 0.00 | 0.00 | 0.00 | 70 | 1006.4 |
| 20260506070148 | 67 | 282 | 14.0 | 31.0 | 0.00 | 0.00 | 0.00 | 70 | 1006.4 |
| 20260506062443 | 67 | 308 | 13.0 | 32.0 | 0.00 | 0.00 | 0.00 | 67 | 1007.0 |
| 20260506062401 | 67 | 302 | 16.0 | 32.0 | 0.00 | 0.00 | 0.00 | 67 | 1007.0 |
| 20260506062259 | 67 | 304 | 17.0 | 32.0 | 0.00 | 0.00 | 0.00 | 67 | 1007.0 |
| 20260506062136 | 67 | 329 | 17.0 | 32.0 | 0.00 | 0.00 | 0.00 | 67 | 1007.0 |
| 20260506062034 | 67 | 308 | 15.0 | 32.0 | 0.00 | 0.00 | 0.00 | 67 | 1007.0 |
| 20260506061932 | 67 | 316 | 18.0 | 32.0 | 0.00 | 0.00 | 0.00 | 66 | 1007.0 |
| 20260506061835 | 67 | 287 | 17.0 | 32.0 | 0.00 | 0.00 | 0.00 | 66 | 1007.0 |
| 20260506061805 | 67 | 305 | 17.0 | 32.0 | 0.00 | 0.00 | 0.00 | 66 | 1007.0 |
| 20260506061653 | 67 | 250 | 16.0 | 32.0 | 0.00 | 0.00 | 0.00 | 66 | 1007.0 |
| 20260506061531 | 67 | 312 | 16.0 | 32.0 | 0.00 | 0.00 | 0.00 | 66 | 1007.0 |
| 20260506061428 | 67 | 274 | 14.0 | 32.0 | 0.00 | 0.00 | 0.00 | 66 | 1007.0 |
| 20260506061327 | 67 | 316 | 17.0 | 32.0 | 0.00 | 0.00 | 0.00 | 66 | 1007.0 |
| 20260506061226 | 67 | 271 | 16.0 | 32.0 | 0.00 | 0.00 | 0.00 | 66 | 1007.0 |
| 20260506061129 | 67 | 315 | 9.0 | 32.0 | 0.00 | 0.00 | 0.00 | 66 | 1007.0 |
| 20260506061047 | 67 | 291 | 13.0 | 32.0 | 0.00 | 0.00 | 0.00 | 66 | 1007.0 |
| 20260506060924 | 67 | 318 | 15.0 | 32.0 | 0.00 | 0.00 | 0.00 | 66 | 1007.0 |
| 20260506060842 | 67 | 271 | 14.0 | 32.0 | 0.00 | 0.00 | 0.00 | 66 | 1007.0 |
| 20260506060801 | 67 | 254 | 16.0 | 32.0 | 0.00 | 0.00 | 0.00 | 66 | 1007.0 |
| 20260506060639 | 67 | 299 | 10.0 | 30.0 | 0.00 | 0.00 | 0.00 | 66 | 1007.0 |
| 20260506060537 | 67 | 311 | 14.0 | 30.0 | 0.00 | 0.00 | 0.00 | 66 | 1007.0 |
| 20260506060435 | 67 | 296 | 14.0 | 30.0 | 0.00 | 0.00 | 0.00 | 66 | 1007.0 |
| 20260506060333 | 67 | 330 | 17.0 | 30.0 | 0.00 | 0.00 | 0.00 | 66 | 1007.0 |
| 20260506060257 | 67 | 244 | 15.0 | 26.0 | 0.00 | 0.00 | 0.00 | 66 | 1007.0 |
| 20260506060205 | 67 | 320 | 14.0 | 26.0 | 0.00 | 0.00 | 0.00 | 66 | 1007.0 |
| 20260506051400 | 68 | 299 | 9.0 | 27.0 | 0.00 | 0.00 | 0.00 | 63 | 1007.9 |
| 20260506051300 | 68 | 291 | 9.0 | 27.0 | 0.00 | 0.00 | 0.00 | 63 | 1007.9 |
| 20260506051137 | 68 | 284 | 15.0 | 27.0 | 0.00 | 0.00 | 0.00 | 63 | 1007.9 |
| 20260506051034 | 68 | 291 | 19.0 | 27.0 | 0.00 | 0.00 | 0.00 | 63 | 1007.9 |
| 20260506050933 | 68 | 287 | 17.0 | 27.0 | 0.00 | 0.00 | 0.00 | 63 | 1007.9 |
| 20260506050831 | 68 | 272 | 16.0 | 25.0 | 0.00 | 0.00 | 0.00 | 63 | 1007.9 |
| 20260506050733 | 68 | 322 | 13.0 | 25.0 | 0.00 | 0.00 | 0.00 | 63 | 1007.9 |
| 20260506050631 | 68 | 305 | 14.0 | 25.0 | 0.00 | 0.00 | 0.00 | 63 | 1007.9 |
| 20260506050529 | 68 | 326 | 13.0 | 30.0 | 0.00 | 0.00 | 0.00 | 63 | 1007.9 |
| 20260506050428 | 68 | 230 | 14.0 | 30.0 | 0.00 | 0.00 | 0.00 | 63 | 1007.9 |
| 20260506050325 | 68 | 280 | 12.0 | 30.0 | 0.00 | 0.00 | 0.00 | 63 | 1007.9 |
| 20260506050243 | 68 | 288 | 14.0 | 30.0 | 0.00 | 0.00 | 0.00 | 63 | 1007.9 |
| 20260506050214 | 68 | 272 | 17.0 | 30.0 | 0.00 | 0.00 | 0.00 | 63 | 1007.9 |
| 20260506045135 | 68 | 220 | 14.0 | 27.0 | 0.00 | 0.00 | 0.00 | 62 | 1007.7 |
| 20260506045037 | 68 | 306 | 11.0 | 27.0 | 0.00 | 0.00 | 0.00 | 63 | 1007.7 |
| 20260506044955 | 68 | 236 | 13.0 | 27.0 | 0.00 | 0.00 | 0.00 | 63 | 1007.7 |
| 20260506044832 | 68 | 263 | 15.0 | 27.0 | 0.00 | 0.00 | 0.00 | 63 | 1007.7 |
| 20260506044751 | 68 | 271 | 15.0 | 27.0 | 0.00 | 0.00 | 0.00 | 62 | 1007.7 |
| 20260506044720 | 68 | 251 | 11.0 | 28.0 | 0.00 | 0.00 | 0.00 | 62 | 1007.7 |
| 20260506044537 | 68 | 328 | 13.0 | 28.0 | 0.00 | 0.00 | 0.00 | 62 | 1007.7 |
| 20260506044456 | 68 | 312 | 14.0 | 28.0 | 0.00 | 0.00 | 0.00 | 62 | 1007.7 |
| 20260506044333 | 68 | 309 | 17.0 | 28.0 | 0.00 | 0.00 | 0.00 | 62 | 1007.8 |
| 20260506044232 | 68 | 264 | 14.0 | 28.0 | 0.00 | 0.00 | 0.00 | 62 | 1007.8 |
| 20260506044135 | 68 | 299 | 17.0 | 28.0 | 0.00 | 0.00 | 0.00 | 62 | 1007.8 |
| 20260506044033 | 68 | 256 | 12.0 | 28.0 | 0.00 | 0.00 | 0.00 | 62 | 1007.8 |
| 20260506043932 | 68 | 282 | 13.0 | 28.0 | 0.00 | 0.00 | 0.00 | 62 | 1007.8 |
| 20260506043832 | 68 | 325 | 21.0 | 28.0 | 0.00 | 0.00 | 0.00 | 62 | 1007.8 |
| 20260506043730 | 68 | 239 | 18.0 | 28.0 | 0.00 | 0.00 | 0.00 | 62 | 1007.8 |
| 20260506043628 | 68 | 282 | 16.0 | 28.0 | 0.00 | 0.00 | 0.00 | 62 | 1007.8 |
| 20260506043531 | 68 | 294 | 14.0 | 28.0 | 0.00 | 0.00 | 0.00 | 62 | 1007.8 |
| 20260506043429 | 68 | 237 | 13.0 | 28.0 | 0.00 | 0.00 | 0.00 | 62 | 1007.8 |
| 20260506043329 | 68 | 315 | 17.0 | 28.0 | 0.00 | 0.00 | 0.00 | 62 | 1007.8 |
| 20260506043231 | 68 | 264 | 20.0 | 28.0 | 0.00 | 0.00 | 0.00 | 62 | 1007.8 |
| 20260506043201 | 68 | 309 | 15.0 | 27.0 | 0.00 | 0.00 | 0.00 | 62 | 1007.8 |
| 20260506043037 | 68 | 301 | 14.0 | 27.0 | 0.00 | 0.00 | 0.00 | 62 | 1007.8 |
| 20260506042935 | 68 | 217 | 16.0 | 27.0 | 0.00 | 0.00 | 0.00 | 62 | 1007.8 |
| 20260506042838 | 68 | 280 | 13.0 | 27.0 | 0.00 | 0.00 | 0.00 | 62 | 1007.8 |
| 20260506042737 | 68 | 315 | 14.0 | 27.0 | 0.00 | 0.00 | 0.00 | 62 | 1007.8 |
| 20260506042636 | 68 | 277 | 15.0 | 27.0 | 0.00 | 0.00 | 0.00 | 62 | 1007.8 |
| 20260506042536 | 68 | 305 | 13.0 | 27.0 | 0.00 | 0.00 | 0.00 | 62 | 1007.8 |
| 20260506042434 | 68 | 240 | 10.0 | 26.0 | 0.00 | 0.00 | 0.00 | 62 | 1007.8 |
| 20260506042332 | 68 | 319 | 21.0 | 26.0 | 0.00 | 0.00 | 0.00 | 62 | 1007.8 |
| 20260506042230 | 68 | 247 | 21.0 | 26.0 | 0.00 | 0.00 | 0.00 | 62 | 1007.8 |
| 20260506042149 | 68 | 302 | 13.0 | 26.0 | 0.00 | 0.00 | 0.00 | 62 | 1007.8 |
| 20260506042031 | 68 | 315 | 10.0 | 26.0 | 0.00 | 0.00 | 0.00 | 62 | 1007.8 |
| 20260506041950 | 68 | 239 | 17.0 | 26.0 | 0.00 | 0.00 | 0.00 | 62 | 1007.8 |
| 20260506041827 | 68 | 301 | 10.0 | 26.0 | 0.00 | 0.00 | 0.00 | 62 | 1007.8 |
| 20260506041736 | 68 | 329 | 14.0 | 26.0 | 0.00 | 0.00 | 0.00 | 62 | 1007.8 |
| 20260506041646 | 68 | 280 | 10.0 | 24.0 | 0.00 | 0.00 | 0.00 | 62 | 1007.8 |
| 20260506041524 | 68 | 271 | 9.0 | 26.0 | 0.00 | 0.00 | 0.00 | 62 | 1007.8 |
| 20260506041442 | 68 | 236 | 13.0 | 26.0 | 0.00 | 0.00 | 0.00 | 62 | 1007.8 |
| 20260506041325 | 68 | 292 | 9.0 | 26.0 | 0.00 | 0.00 | 0.00 | 62 | 1008.0 |
| 20260506041243 | 68 | 264 | 10.0 | 26.0 | 0.00 | 0.00 | 0.00 | 62 | 1008.0 |
| 20260506041142 | 68 | 285 | 11.0 | 31.0 | 0.00 | 0.00 | 0.00 | 62 | 1008.0 |
| 20260506041102 | 68 | 257 | 13.0 | 31.0 | 0.00 | 0.00 | 0.00 | 62 | 1008.0 |
| 20260506040938 | 68 | 299 | 14.0 | 31.0 | 0.00 | 0.00 | 0.00 | 62 | 1008.0 |
| 20260506040838 | 68 | 281 | 14.0 | 31.0 | 0.00 | 0.00 | 0.00 | 62 | 1008.0 |
| 20260506040736 | 68 | 319 | 14.0 | 31.0 | 0.00 | 0.00 | 0.00 | 62 | 1008.0 |
| 20260506040634 | 68 | 270 | 16.0 | 31.0 | 0.00 | 0.00 | 0.00 | 62 | 1008.0 |
| 20260506040536 | 68 | 291 | 11.0 | 31.0 | 0.00 | 0.00 | 0.00 | 62 | 1008.0 |
| 20260506040455 | 68 | 256 | 14.0 | 31.0 | 0.00 | 0.00 | 0.00 | 62 | 1008.0 |
| 20260506040332 | 68 | 271 | 19.0 | 31.0 | 0.00 | 0.00 | 0.00 | 62 | 1008.0 |
| 20260506040231 | 68 | 305 | 14.0 | 28.0 | 0.00 | 0.00 | 0.00 | 62 | 1008.0 |
| 20260506040201 | 68 | 234 | 11.0 | 28.0 | 0.00 | 0.00 | 0.00 | 62 | 1008.0 |
| 20260506040057 | 68 | 272 | 14.0 | 28.0 | 0.00 | 0.00 | 0.00 | 62 | 1008.0 |
| 20260506035934 | 68 | 258 | 14.0 | 28.0 | 0.00 | 0.00 | 0.00 | 62 | 1008.0 |
| 20260506035832 | 68 | 306 | 14.0 | 28.0 | 0.00 | 0.00 | 0.00 | 62 | 1007.9 |
| 20260506035734 | 68 | 267 | 13.0 | 28.0 | 0.00 | 0.00 | 0.00 | 62 | 1007.9 |
| 20260506035531 | 68 | 292 | 17.0 | 28.0 | 0.00 | 0.00 | 0.00 | 62 | 1007.9 |
| 20260506035428 | 68 | 261 | 14.0 | 27.0 | 0.00 | 0.00 | 0.00 | 62 | 1007.9 |
| 20260506035351 | 68 | 329 | 16.0 | 27.0 | 0.00 | 0.00 | 0.00 | 62 | 1007.9 |
| 20260506035227 | 68 | 312 | 18.0 | 27.0 | 0.00 | 0.00 | 0.00 | 62 | 1007.9 |
| 20260506035126 | 68 | 264 | 11.0 | 22.0 | 0.00 | 0.00 | 0.00 | 62 | 1007.9 |
| 20260506035031 | 68 | 234 | 9.0 | 24.0 | 0.00 | 0.00 | 0.00 | 62 | 1007.9 |
| 20260506034931 | 68 | 233 | 11.0 | 27.0 | 0.00 | 0.00 | 0.00 | 62 | 1007.9 |
| 20260506034828 | 68 | 308 | 13.0 | 27.0 | 0.00 | 0.00 | 0.00 | 62 | 1007.9 |
| 20260506034739 | 68 | 257 | 18.0 | 27.0 | 0.00 | 0.00 | 0.00 | 62 | 1007.9 |
| 20260506034647 | 68 | 315 | 11.0 | 28.0 | 0.00 | 0.00 | 0.00 | 62 | 1007.9 |
| 20260506034524 | 68 | 302 | 13.0 | 28.0 | 0.00 | 0.00 | 0.00 | 62 | 1007.9 |
| 20260506034442 | 68 | 272 | 9.0 | 28.0 | 0.00 | 0.00 | 0.00 | 62 | 1007.9 |
| 20260506034401 | 68 | 219 | 13.0 | 28.0 | 0.00 | 0.00 | 0.00 | 62 | 1007.9 |
| 20260506034244 | 68 | 243 | 15.0 | 28.0 | 0.00 | 0.00 | 0.00 | 62 | 1007.9 |
| 20260506034203 | 68 | 316 | 18.0 | 28.0 | 0.00 | 0.00 | 0.00 | 63 | 1007.9 |
| 20260506034041 | 68 | 284 | 18.0 | 28.0 | 0.00 | 0.00 | 0.00 | 63 | 1007.9 |
| 20260506033939 | 68 | 216 | 16.0 | 28.0 | 0.00 | 0.00 | 0.00 | 63 | 1007.9 |
| 20260506033838 | 68 | 271 | 17.0 | 28.0 | 0.00 | 0.00 | 0.00 | 63 | 1007.9 |
| 20260506033736 | 68 | 291 | 15.0 | 28.0 | 0.00 | 0.00 | 0.00 | 63 | 1007.9 |
| 20260506033635 | 68 | 329 | 12.0 | 28.0 | 0.00 | 0.00 | 0.00 | 63 | 1007.9 |
| 20260506033532 | 68 | 251 | 10.0 | 28.0 | 0.00 | 0.00 | 0.00 | 63 | 1007.9 |
| 20260506033435 | 68 | 246 | 11.0 | 28.0 | 0.00 | 0.00 | 0.00 | 63 | 1007.9 |
| 20260506033333 | 68 | 233 | 16.0 | 28.0 | 0.00 | 0.00 | 0.00 | 63 | 1007.9 |
| 20260506033232 | 68 | 274 | 16.0 | 26.0 | 0.00 | 0.00 | 0.00 | 63 | 1007.9 |
| 20260506033204 | 68 | 240 | 14.0 | 26.0 | 0.00 | 0.00 | 0.00 | 63 | 1007.9 |
| 20260506033042 | 68 | 260 | 16.0 | 26.0 | 0.00 | 0.00 | 0.00 | 63 | 1007.9 |
| 20260506032940 | 68 | 306 | 14.0 | 26.0 | 0.00 | 0.00 | 0.00 | 63 | 1007.9 |
| 20260506032839 | 68 | 247 | 8.0 | 26.0 | 0.00 | 0.00 | 0.00 | 63 | 1007.9 |
| 20260506032800 | 68 | 243 | 9.0 | 26.0 | 0.00 | 0.00 | 0.00 | 63 | 1007.9 |
| 20260506032637 | 68 | 275 | 12.0 | 26.0 | 0.00 | 0.00 | 0.00 | 63 | 1007.9 |
| 20260506032536 | 68 | 233 | 16.0 | 26.0 | 0.00 | 0.00 | 0.00 | 63 | 1007.9 |
| 20260506032435 | 68 | 223 | 14.0 | 24.0 | 0.00 | 0.00 | 0.00 | 63 | 1007.9 |
| 20260506032335 | 68 | 278 | 13.0 | 24.0 | 0.00 | 0.00 | 0.00 | 63 | 1007.9 |
| 20260506032233 | 68 | 278 | 12.0 | 24.0 | 0.00 | 0.00 | 0.00 | 63 | 1007.9 |
| 20260506032131 | 68 | 213 | 14.0 | 24.0 | 0.00 | 0.00 | 0.00 | 63 | 1007.9 |
| 20260506032058 | 68 | 250 | 14.0 | 24.0 | 0.00 | 0.00 | 0.00 | 63 | 1007.9 |
| 20260506031936 | 68 | 193 | 10.0 | 20.0 | 0.00 | 0.00 | 0.00 | 63 | 1007.9 |
| 20260506031834 | 68 | 232 | 12.0 | 20.0 | 0.00 | 0.00 | 0.00 | 63 | 1007.9 |
| 20260506031743 | 68 | 196 | 11.0 | 20.0 | 0.00 | 0.00 | 0.00 | 63 | 1007.9 |
| 20260506031652 | 68 | 288 | 13.0 | 20.0 | 0.00 | 0.00 | 0.00 | 63 | 1007.9 |
| 20260506031548 | 68 | 275 | 12.0 | 20.0 | 0.00 | 0.00 | 0.00 | 63 | 1007.9 |
| 20260506031425 | 68 | 191 | 10.0 | 24.0 | 0.00 | 0.00 | 0.00 | 63 | 1007.9 |
| 20260506031325 | 68 | 268 | 11.0 | 24.0 | 0.00 | 0.00 | 0.00 | 63 | 1008.3 |
| 20260506031228 | 68 | 191 | 9.0 | 24.0 | 0.00 | 0.00 | 0.00 | 64 | 1008.3 |
| 20260506031126 | 68 | 285 | 13.0 | 24.0 | 0.00 | 0.00 | 0.00 | 64 | 1008.3 |
| 20260506031043 | 68 | 247 | 15.0 | 24.0 | 0.00 | 0.00 | 0.00 | 64 | 1008.3 |
| 20260506031001 | 68 | 257 | 11.0 | 24.0 | 0.00 | 0.00 | 0.00 | 64 | 1008.3 |
| 20260506030839 | 68 | 268 | 10.0 | 24.0 | 0.00 | 0.00 | 0.00 | 64 | 1008.3 |
| 20260506030737 | 68 | 299 | 11.0 | 24.0 | 0.00 | 0.00 | 0.00 | 64 | 1008.3 |
| 20260506030636 | 68 | 326 | 12.0 | 24.0 | 0.00 | 0.00 | 0.00 | 64 | 1008.3 |
| 20260506030539 | 68 | 239 | 9.0 | 22.0 | 0.00 | 0.00 | 0.00 | 64 | 1008.3 |
| 20260506030437 | 68 | 236 | 11.0 | 22.0 | 0.00 | 0.00 | 0.00 | 64 | 1008.3 |
| 20260506030336 | 68 | 233 | 10.0 | 22.0 | 0.00 | 0.00 | 0.00 | 64 | 1008.3 |
| 20260506030234 | 68 | 210 | 11.0 | 22.0 | 0.00 | 0.00 | 0.00 | 63 | 1008.3 |
| 20260506030204 | 68 | 205 | 12.0 | 25.0 | 0.00 | 0.00 | 0.00 | 64 | 1008.3 |
| 20260506030040 | 68 | 254 | 11.0 | 25.0 | 0.00 | 0.00 | 0.00 | 64 | 1008.3 |
| 20260506025939 | 68 | 215 | 13.0 | 25.0 | 0.00 | 0.00 | 0.00 | 64 | 1008.3 |
| 20260506025838 | 67 | 296 | 8.0 | 25.0 | 0.00 | 0.00 | 0.00 | 64 | 1008.2 |
| 20260506025739 | 67 | 267 | 13.0 | 25.0 | 0.00 | 0.00 | 0.00 | 64 | 1008.2 |
| 20260506025637 | 67 | 241 | 12.0 | 25.0 | 0.00 | 0.00 | 0.00 | 64 | 1008.2 |
| 20260506025555 | 67 | 260 | 14.0 | 25.0 | 0.00 | 0.00 | 0.00 | 64 | 1008.2 |
| 20260506025432 | 67 | 274 | 9.0 | 25.0 | 0.00 | 0.00 | 0.00 | 64 | 1008.2 |
| 20260506025330 | 67 | 295 | 12.0 | 25.0 | 0.00 | 0.00 | 0.00 | 64 | 1008.2 |
| 20260506025228 | 67 | 260 | 10.0 | 25.0 | 0.00 | 0.00 | 0.00 | 64 | 1008.2 |
| 20260506025146 | 67 | 209 | 13.0 | 25.0 | 0.00 | 0.00 | 0.00 | 64 | 1008.2 |
| 20260506025043 | 67 | 284 | 14.0 | 25.0 | 0.00 | 0.00 | 0.00 | 64 | 1008.2 |
| 20260506024926 | 67 | 222 | 12.0 | 25.0 | 0.00 | 0.00 | 0.00 | 64 | 1008.2 |
| 20260506024823 | 67 | 215 | 11.0 | 21.0 | 0.00 | 0.00 | 0.00 | 64 | 1008.2 |
| 20260506024726 | 67 | 265 | 8.0 | 18.0 | 0.00 | 0.00 | 0.00 | 64 | 1008.2 |
| 20260506024659 | 67 | 230 | 7.0 | 25.0 | 0.00 | 0.00 | 0.00 | 64 | 1008.2 |
| 20260506024536 | 67 | 311 | 8.0 | 25.0 | 0.00 | 0.00 | 0.00 | 64 | 1008.2 |
| 20260506024436 | 67 | 257 | 9.0 | 25.0 | 0.00 | 0.00 | 0.00 | 64 | 1008.2 |
| 20260506024335 | 67 | 232 | 8.0 | 25.0 | 0.00 | 0.00 | 0.00 | 64 | 1008.2 |
| 20260506024236 | 67 | 236 | 11.0 | 25.0 | 0.00 | 0.00 | 0.00 | 64 | 1008.2 |
| 20260506024134 | 67 | 287 | 11.0 | 25.0 | 0.00 | 0.00 | 0.00 | 64 | 1008.2 |
| 20260506024034 | 67 | 230 | 11.0 | 25.0 | 0.00 | 0.00 | 0.00 | 64 | 1008.2 |
| 20260506023934 | 67 | 208 | 11.0 | 25.0 | 0.00 | 0.00 | 0.00 | 64 | 1008.2 |
| 20260506023835 | 67 | 275 | 12.0 | 25.0 | 0.00 | 0.00 | 0.00 | 64 | 1008.2 |
| 20260506023732 | 67 | 222 | 11.0 | 22.0 | 0.00 | 0.00 | 0.00 | 64 | 1008.2 |
| 20260506023631 | 67 | 239 | 14.0 | 22.0 | 0.00 | 0.00 | 0.00 | 64 | 1008.2 |
| 20260506023534 | 67 | 241 | 7.0 | 20.0 | 0.00 | 0.00 | 0.00 | 64 | 1008.2 |
| 20260506023433 | 67 | 288 | 10.0 | 20.0 | 0.00 | 0.00 | 0.00 | 64 | 1008.2 |
| 20260506023332 | 67 | 258 | 8.0 | 24.0 | 0.00 | 0.00 | 0.00 | 64 | 1008.2 |
| 20260506023230 | 67 | 247 | 9.0 | 24.0 | 0.00 | 0.00 | 0.00 | 64 | 1008.2 |
| 20260506023202 | 67 | 209 | 8.0 | 24.0 | 0.00 | 0.00 | 0.00 | 64 | 1008.2 |
| 20260506023038 | 67 | 264 | 8.0 | 24.0 | 0.00 | 0.00 | 0.00 | 64 | 1008.2 |
| 20260506022936 | 67 | 284 | 9.0 | 24.0 | 0.00 | 0.00 | 0.00 | 64 | 1008.2 |
| 20260506022838 | 67 | 287 | 12.0 | 24.0 | 0.00 | 0.00 | 0.00 | 64 | 1007.8 |
| 20260506022736 | 68 | 254 | 6.0 | 24.0 | 0.00 | 0.00 | 0.00 | 64 | 1007.8 |
| 20260506022634 | 68 | 251 | 10.0 | 24.0 | 0.00 | 0.00 | 0.00 | 64 | 1007.8 |
| 20260506022532 | 68 | 208 | 10.0 | 24.0 | 0.00 | 0.00 | 0.00 | 64 | 1007.8 |
| 20260506022432 | 68 | 202 | 8.0 | 20.0 | 0.00 | 0.00 | 0.00 | 64 | 1007.8 |
| 20260506022330 | 68 | 267 | 11.0 | 20.0 | 0.00 | 0.00 | 0.00 | 64 | 1007.8 |
| 20260506022250 | 68 | 278 | 10.0 | 20.0 | 0.00 | 0.00 | 0.00 | 64 | 1007.8 |
| 20260506022130 | 68 | 272 | 6.0 | 19.0 | 0.00 | 0.00 | 0.00 | 64 | 1007.8 |
| 20260506022029 | 68 | 244 | 9.0 | 19.0 | 0.00 | 0.00 | 0.00 | 64 | 1007.8 |
| 20260506021928 | 68 | 247 | 11.0 | 19.0 | 0.00 | 0.00 | 0.00 | 64 | 1007.8 |
| 20260506021827 | 68 | 195 | 8.0 | 19.0 | 0.00 | 0.00 | 0.00 | 64 | 1007.8 |
| 20260506021725 | 68 | 271 | 7.0 | 19.0 | 0.00 | 0.00 | 0.00 | 64 | 1007.8 |
| 20260506021655 | 68 | 198 | 8.0 | 22.0 | 0.00 | 0.00 | 0.00 | 64 | 1007.8 |
| 20260506021553 | 68 | 236 | 8.0 | 22.0 | 0.00 | 0.00 | 0.00 | 64 | 1007.8 |
| 20260506021430 | 68 | 244 | 12.0 | 27.0 | 0.00 | 0.00 | 0.00 | 64 | 1007.8 |
| 20260506021333 | 68 | 239 | 11.0 | 27.0 | 0.00 | 0.00 | 0.00 | 64 | 1007.0 |
| 20260506021230 | 68 | 277 | 11.0 | 27.0 | 0.00 | 0.00 | 0.00 | 64 | 1007.0 |
| 20260506021129 | 68 | 222 | 8.0 | 27.0 | 0.00 | 0.00 | 0.00 | 64 | 1007.0 |
| 20260506021047 | 68 | 178 | 10.0 | 27.0 | 0.00 | 0.00 | 0.00 | 63 | 1007.0 |
| 20260506020924 | 68 | 224 | 11.0 | 27.0 | 0.00 | 0.00 | 0.00 | 63 | 1007.0 |
| 20260506020843 | 68 | 258 | 13.0 | 27.0 | 0.00 | 0.00 | 0.00 | 63 | 1007.0 |
| 20260506020743 | 68 | 202 | 13.0 | 27.0 | 0.00 | 0.00 | 0.00 | 63 | 1007.0 |
| 20260506020624 | 68 | 253 | 11.0 | 27.0 | 0.00 | 0.00 | 0.00 | 63 | 1007.0 |
| 20260506020542 | 68 | 268 | 13.0 | 27.0 | 0.00 | 0.00 | 0.00 | 63 | 1007.0 |
| 20260506020441 | 68 | 233 | 13.0 | 22.0 | 0.00 | 0.00 | 0.00 | 63 | 1007.0 |
| 20260506020403 | 68 | 248 | 11.0 | 22.0 | 0.00 | 0.00 | 0.00 | 63 | 1007.0 |
| 20260506020300 | 68 | 202 | 9.0 | 22.0 | 0.00 | 0.00 | 0.00 | 63 | 1007.0 |
| 20260506020209 | 68 | 220 | 11.0 | 22.0 | 0.00 | 0.00 | 0.00 | 63 | 1007.0 |
| 20260506020024 | 68 | 206 | 12.0 | 22.0 | 0.00 | 0.00 | 0.00 | 63 | 1007.0 |
| 20260506015943 | 68 | 258 | 11.0 | 22.0 | 0.00 | 0.00 | 0.00 | 63 | 1007.0 |
| 20260506015841 | 68 | 250 | 13.0 | 22.0 | 0.00 | 0.00 | 0.00 | 63 | 1007.4 |
| 20260506015724 | 68 | 240 | 13.0 | 22.0 | 0.00 | 0.00 | 0.00 | 63 | 1007.4 |
| 20260506015643 | 68 | 234 | 9.0 | 18.0 | 0.00 | 0.00 | 0.00 | 63 | 1007.4 |
| 20260506015540 | 68 | 234 | 7.0 | 19.0 | 0.00 | 0.00 | 0.00 | 63 | 1007.4 |
| 20260506015438 | 68 | 199 | 6.0 | 19.0 | 0.00 | 0.00 | 0.00 | 63 | 1007.4 |
| 20260506015336 | 68 | 239 | 9.0 | 20.0 | 0.00 | 0.00 | 0.00 | 63 | 1007.4 |
| 20260506015235 | 68 | 227 | 11.0 | 20.0 | 0.00 | 0.00 | 0.00 | 63 | 1007.4 |
| 20260506015153 | 68 | 254 | 7.0 | 20.0 | 0.00 | 0.00 | 0.00 | 63 | 1007.4 |
| 20260506015034 | 68 | 199 | 7.0 | 27.0 | 0.00 | 0.00 | 0.00 | 63 | 1007.4 |
| 20260506014953 | 68 | 274 | 10.0 | 27.0 | 0.00 | 0.00 | 0.00 | 63 | 1007.4 |
| 20260506014829 | 68 | 261 | 14.0 | 27.0 | 0.00 | 0.00 | 0.00 | 63 | 1007.4 |
| 20260506014740 | 68 | 308 | 10.0 | 27.0 | 0.00 | 0.00 | 0.00 | 63 | 1007.4 |
| 20260506014648 | 68 | 263 | 12.0 | 27.0 | 0.00 | 0.00 | 0.00 | 63 | 1007.4 |
| 20260506014526 | 68 | 215 | 14.0 | 27.0 | 0.00 | 0.00 | 0.00 | 63 | 1007.4 |
| 20260506014424 | 68 | 175 | 14.0 | 27.0 | 0.00 | 0.00 | 0.00 | 63 | 1007.4 |
| 20260506014324 | 68 | 272 | 8.0 | 27.0 | 0.00 | 0.00 | 0.00 | 63 | 1007.1 |
| 20260506014226 | 68 | 247 | 15.0 | 27.0 | 0.00 | 0.00 | 0.00 | 63 | 1007.1 |
| 20260506014125 | 68 | 277 | 9.0 | 22.0 | 0.00 | 0.00 | 0.00 | 63 | 1007.1 |
| 20260506014024 | 68 | 271 | 13.0 | 22.0 | 0.00 | 0.00 | 0.00 | 63 | 1007.1 |
| 20260506013942 | 68 | 289 | 14.0 | 22.0 | 0.00 | 0.00 | 0.00 | 63 | 1007.1 |
| 20260506013841 | 68 | 243 | 11.0 | 22.0 | 0.00 | 0.00 | 0.00 | 63 | 1007.1 |
| 20260506013739 | 68 | 258 | 6.0 | 22.0 | 0.00 | 0.00 | 0.00 | 63 | 1007.1 |
| 20260506013637 | 68 | 251 | 8.0 | 22.0 | 0.00 | 0.00 | 0.00 | 63 | 1007.1 |
| 20260506013556 | 68 | 302 | 8.0 | 22.0 | 0.00 | 0.00 | 0.00 | 63 | 1007.1 |
| 20260506013437 | 68 | 272 | 12.0 | 22.0 | 0.00 | 0.00 | 0.00 | 63 | 1007.1 |
| 20260506013357 | 68 | 309 | 14.0 | 27.0 | 0.00 | 0.00 | 0.00 | 63 | 1007.1 |
| 20260506013315 | 68 | 205 | 14.0 | 27.0 | 0.00 | 0.00 | 0.00 | 63 | 1007.1 |
| 20260506013204 | 68 | 241 | 14.0 | 27.0 | 0.00 | 0.00 | 0.00 | 63 | 1007.1 |
| 20260506013041 | 68 | 241 | 8.0 | 27.0 | 0.00 | 0.00 | 0.00 | 63 | 1007.1 |
| 20260506012940 | 68 | 223 | 10.0 | 27.0 | 0.00 | 0.00 | 0.00 | 62 | 1007.1 |
| 20260506012839 | 68 | 241 | 9.0 | 27.0 | 0.00 | 0.00 | 0.00 | 62 | 1007.0 |
| 20260506012737 | 68 | 209 | 10.0 | 27.0 | 0.00 | 0.00 | 0.00 | 63 | 1007.0 |
| 20260506012640 | 68 | 200 | 10.0 | 27.0 | 0.00 | 0.00 | 0.00 | 62 | 1007.0 |
| 20260506012538 | 68 | 210 | 12.0 | 27.0 | 0.00 | 0.00 | 0.00 | 62 | 1007.0 |
| 20260506012438 | 68 | 192 | 14.0 | 27.0 | 0.00 | 0.00 | 0.00 | 62 | 1007.0 |
| 20260506012335 | 68 | 267 | 11.0 | 20.0 | 0.00 | 0.00 | 0.00 | 62 | 1007.0 |
| 20260506012234 | 68 | 216 | 11.0 | 20.0 | 0.00 | 0.00 | 0.00 | 62 | 1007.0 |
| 20260506012133 | 68 | 192 | 12.0 | 20.0 | 0.00 | 0.00 | 0.00 | 62 | 1007.0 |
| 20260506012036 | 68 | 212 | 10.0 | 20.0 | 0.00 | 0.00 | 0.00 | 62 | 1007.0 |
| 20260506011933 | 68 | 176 | 7.0 | 20.0 | 0.00 | 0.00 | 0.00 | 62 | 1007.0 |
| 20260506011835 | 68 | 176 | 6.0 | 20.0 | 0.00 | 0.00 | 0.00 | 62 | 1007.0 |
| 20260506011744 | 68 | 195 | 12.0 | 20.0 | 0.00 | 0.00 | 0.00 | 63 | 1007.0 |
| 20260506011653 | 68 | 248 | 10.0 | 24.0 | 0.00 | 0.00 | 0.00 | 62 | 1007.0 |
| 20260506011531 | 68 | 192 | 12.0 | 24.0 | 0.00 | 0.00 | 0.00 | 62 | 1007.0 |
| 20260506011429 | 68 | 265 | 8.0 | 24.0 | 0.00 | 0.00 | 0.00 | 62 | 1007.0 |
| 20260506011327 | 68 | 239 | 10.0 | 24.0 | 0.00 | 0.00 | 0.00 | 62 | 1007.2 |
| 20260506011249 | 68 | 236 | 10.0 | 24.0 | 0.00 | 0.00 | 0.00 | 62 | 1007.2 |
| 20260506011127 | 68 | 260 | 9.0 | 24.0 | 0.00 | 0.00 | 0.00 | 62 | 1007.2 |
| 20260506011046 | 68 | 227 | 11.0 | 24.0 | 0.00 | 0.00 | 0.00 | 62 | 1007.2 |
| 20260506010943 | 68 | 277 | 9.0 | 24.0 | 0.00 | 0.00 | 0.00 | 62 | 1007.2 |
| 20260506010902 | 68 | 251 | 13.0 | 24.0 | 0.00 | 0.00 | 0.00 | 62 | 1007.2 |
| 20260506010758 | 68 | 275 | 13.0 | 24.0 | 0.00 | 0.00 | 0.00 | 62 | 1007.2 |
| 20260506010634 | 68 | 258 | 12.0 | 21.0 | 0.00 | 0.00 | 0.00 | 62 | 1007.2 |
| 20260506010532 | 68 | 232 | 12.0 | 21.0 | 0.00 | 0.00 | 0.00 | 62 | 1007.2 |
| 20260506010431 | 68 | 206 | 11.0 | 21.0 | 0.00 | 0.00 | 0.00 | 62 | 1007.2 |
| 20260506010334 | 68 | 237 | 6.0 | 21.0 | 0.00 | 0.00 | 0.00 | 62 | 1007.2 |
| 20260506010252 | 68 | 222 | 8.0 | 21.0 | 0.00 | 0.00 | 0.00 | 62 | 1007.2 |
| 20260506010203 | 68 | 254 | 9.0 | 21.0 | 0.00 | 0.00 | 0.00 | 62 | 1007.2 |
| 20260506010100 | 68 | 302 | 10.0 | 21.0 | 0.00 | 0.00 | 0.00 | 62 | 1007.2 |
| 20260506005938 | 68 | 285 | 9.0 | 21.0 | 0.00 | 0.00 | 0.00 | 62 | 1007.2 |
| 20260506005836 | 68 | 292 | 12.0 | 21.0 | 0.00 | 0.00 | 0.00 | 62 | 1007.1 |
| 20260506005735 | 68 | 246 | 13.0 | 21.0 | 0.00 | 0.00 | 0.00 | 62 | 1007.1 |
| 20260506005634 | 68 | 241 | 8.0 | 20.0 | 0.00 | 0.00 | 0.00 | 62 | 1007.1 |
| 20260506005536 | 68 | 256 | 9.0 | 20.0 | 0.00 | 0.00 | 0.00 | 62 | 1007.1 |
| 20260506005434 | 68 | 248 | 12.0 | 20.0 | 0.00 | 0.00 | 0.00 | 62 | 1007.1 |
| 20260506005334 | 68 | 247 | 9.0 | 20.0 | 0.00 | 0.00 | 0.00 | 62 | 1007.1 |
| 20260506005233 | 68 | 224 | 8.0 | 20.0 | 0.00 | 0.00 | 0.00 | 62 | 1007.1 |
| 20260506005132 | 68 | 208 | 11.0 | 20.0 | 0.00 | 0.00 | 0.00 | 61 | 1007.1 |
| 20260506005029 | 68 | 234 | 10.0 | 20.0 | 0.00 | 0.00 | 0.00 | 61 | 1007.1 |
| 20260506004928 | 68 | 192 | 11.0 | 20.0 | 0.00 | 0.00 | 0.00 | 61 | 1007.1 |
| 20260506004831 | 68 | 202 | 14.0 | 20.0 | 0.00 | 0.00 | 0.00 | 61 | 1007.1 |
| 20260506004732 | 68 | 217 | 12.0 | 19.0 | 0.00 | 0.00 | 0.00 | 61 | 1007.1 |
| 20260506004701 | 68 | 264 | 10.0 | 19.0 | 0.00 | 0.00 | 0.00 | 61 | 1007.1 |
| 20260506004538 | 68 | 215 | 12.0 | 19.0 | 0.00 | 0.00 | 0.00 | 61 | 1007.1 |
| 20260506004436 | 68 | 199 | 11.0 | 19.0 | 0.00 | 0.00 | 0.00 | 61 | 1007.1 |
| 20260506004335 | 68 | 213 | 10.0 | 19.0 | 0.00 | 0.00 | 0.00 | 61 | 1007.2 |
| 20260506004253 | 68 | 265 | 11.0 | 19.0 | 0.00 | 0.00 | 0.00 | 61 | 1007.2 |
| 20260506004135 | 68 | 233 | 11.0 | 19.0 | 0.00 | 0.00 | 0.00 | 61 | 1007.2 |
| 20260506004034 | 68 | 196 | 7.0 | 19.0 | 0.00 | 0.00 | 0.00 | 61 | 1007.2 |
| 20260506003953 | 68 | 208 | 10.0 | 22.0 | 0.00 | 0.00 | 0.00 | 61 | 1007.2 |
| 20260506003829 | 68 | 220 | 9.0 | 22.0 | 0.00 | 0.00 | 0.00 | 61 | 1007.2 |
| 20260506003728 | 68 | 247 | 10.0 | 22.0 | 0.00 | 0.00 | 0.00 | 60 | 1007.2 |
| 20260506003627 | 68 | 210 | 11.0 | 22.0 | 0.00 | 0.00 | 0.00 | 61 | 1007.2 |
| 20260506003546 | 68 | 202 | 8.0 | 22.0 | 0.00 | 0.00 | 0.00 | 61 | 1007.2 |
| 20260506003445 | 68 | 202 | 10.0 | 22.0 | 0.00 | 0.00 | 0.00 | 61 | 1007.2 |
| 20260506003403 | 68 | 193 | 11.0 | 22.0 | 0.00 | 0.00 | 0.00 | 61 | 1007.2 |
| 20260506003235 | 68 | 265 | 6.0 | 22.0 | 0.00 | 0.00 | 0.00 | 61 | 1007.2 |
| 20260506003147 | 68 | 219 | 13.0 | 22.0 | 0.00 | 0.00 | 0.00 | 61 | 1007.2 |
| 20260506003024 | 68 | 260 | 7.0 | 21.0 | 0.00 | 0.00 | 0.00 | 60 | 1007.2 |
| 20260506002943 | 68 | 213 | 8.0 | 21.0 | 0.00 | 0.00 | 0.00 | 61 | 1007.2 |
| 20260506002901 | 68 | 215 | 10.0 | 24.0 | 0.00 | 0.00 | 0.00 | 60 | 1007.1 |
| 20260506002738 | 68 | 227 | 7.0 | 24.0 | 0.00 | 0.00 | 0.00 | 61 | 1007.1 |
| 20260506002636 | 68 | 200 | 8.0 | 24.0 | 0.00 | 0.00 | 0.00 | 60 | 1007.1 |
| 20260506002535 | 68 | 272 | 8.0 | 24.0 | 0.00 | 0.00 | 0.00 | 60 | 1007.1 |
| 20260506002438 | 68 | 216 | 12.0 | 24.0 | 0.00 | 0.00 | 0.00 | 60 | 1007.1 |
| 20260506002337 | 68 | 227 | 10.0 | 24.0 | 0.00 | 0.00 | 0.00 | 60 | 1007.1 |
| 20260506002235 | 68 | 243 | 8.0 | 24.0 | 0.00 | 0.00 | 0.00 | 60 | 1007.1 |
| 20260506002134 | 68 | 223 | 9.0 | 24.0 | 0.00 | 0.00 | 0.00 | 60 | 1007.1 |
| 20260506002033 | 69 | 203 | 14.0 | 24.0 | 0.00 | 0.00 | 0.00 | 60 | 1007.1 |
| 20260506001932 | 69 | 232 | 12.0 | 20.0 | 0.00 | 0.00 | 0.00 | 60 | 1007.1 |
| 20260506001834 | 69 | 222 | 14.0 | 20.0 | 0.00 | 0.00 | 0.00 | 60 | 1007.1 |
| 20260506001732 | 69 | 256 | 11.0 | 18.0 | 0.00 | 0.00 | 0.00 | 60 | 1007.1 |
| 20260506001701 | 69 | 220 | 11.0 | 18.0 | 0.00 | 0.00 | 0.00 | 60 | 1007.1 |
| 20260506001538 | 69 | 243 | 8.0 | 27.0 | 0.00 | 0.00 | 0.00 | 60 | 1007.1 |
| 20260506001458 | 69 | 223 | 7.0 | 27.0 | 0.00 | 0.00 | 0.00 | 59 | 1007.1 |
| 20260506001335 | 69 | 212 | 7.0 | 27.0 | 0.00 | 0.00 | 0.00 | 59 | 1007.1 |
| 20260506001233 | 69 | 263 | 11.0 | 27.0 | 0.00 | 0.00 | 0.00 | 59 | 1007.1 |
| 20260506001132 | 69 | 216 | 11.0 | 27.0 | 0.00 | 0.00 | 0.00 | 59 | 1007.1 |
| 20260506001051 | 69 | 224 | 7.0 | 27.0 | 0.00 | 0.00 | 0.00 | 59 | 1007.1 |
| 20260506000952 | 69 | 184 | 9.0 | 27.0 | 0.00 | 0.00 | 0.00 | 59 | 1007.1 |
| 20260506000830 | 69 | 193 | 12.0 | 27.0 | 0.00 | 0.00 | 0.00 | 59 | 1007.1 |
| 20260506000748 | 69 | 199 | 17.0 | 27.0 | 0.00 | 0.00 | 0.00 | 59 | 1007.1 |
| 20260506000631 | 69 | 240 | 9.0 | 21.0 | 0.00 | 0.00 | 0.00 | 59 | 1007.1 |
| 20260506000529 | 69 | 247 | 10.0 | 21.0 | 0.00 | 0.00 | 0.00 | 59 | 1007.1 |
| 20260506000431 | 69 | 248 | 12.0 | 21.0 | 0.00 | 0.00 | 0.00 | 59 | 1007.1 |
| 20260506000326 | 69 | 234 | 15.0 | 21.0 | 0.00 | 0.00 | 0.00 | 59 | 1007.1 |
| 20260506000240 | 69 | 261 | 12.0 | 21.0 | 0.00 | 0.00 | 0.00 | 59 | 1007.1 |
| 20260506000149 | 69 | 226 | 9.0 | 19.0 | 0.00 | 0.00 | 0.00 | 59 | 1007.1 |
| 20260506000046 | 69 | 208 | 9.0 | 24.0 | 0.00 | 0.00 | 0.00 | 59 | 1007.1 |
| 20260506000004 | 69 | 295 | 9.0 | 24.0 | 0.00 | 0.00 | 0.00 | 59 | 1007.1 |
| 20260505235902 | 69 | 181 | 10.0 | 24.0 | 0.00 | 0.00 | 0.00 | 59 | 1007.3 |
| 20260505235738 | 69 | 188 | 10.0 | 24.0 | 0.00 | 0.00 | 0.00 | 59 | 1007.3 |
| 20260505235636 | 69 | 281 | 10.0 | 24.0 | 0.00 | 0.00 | 0.00 | 59 | 1007.3 |
| 20260505235533 | 69 | 247 | 12.0 | 24.0 | 0.00 | 0.00 | 0.00 | 59 | 1007.3 |
| 20260505235433 | 69 | 275 | 10.0 | 24.0 | 0.00 | 0.00 | 0.00 | 59 | 1007.3 |
| 20260505235339 | 69 | 264 | 9.0 | 24.0 | 0.00 | 0.00 | 0.00 | 59 | 1007.3 |
| 20260505235238 | 69 | 256 | 13.0 | 24.0 | 0.00 | 0.00 | 0.00 | 59 | 1007.3 |
| 20260505235136 | 69 | 216 | 8.0 | 19.0 | 0.00 | 0.00 | 0.00 | 59 | 1007.3 |
| 20260505235034 | 69 | 230 | 9.0 | 19.0 | 0.00 | 0.00 | 0.00 | 59 | 1007.3 |
| 20260505234933 | 69 | 270 | 9.0 | 19.0 | 0.00 | 0.00 | 0.00 | 59 | 1007.3 |
| 20260505234831 | 69 | 268 | 6.0 | 15.0 | 0.00 | 0.00 | 0.00 | 59 | 1007.3 |
| 20260505234802 | 69 | 226 | 6.0 | 15.0 | 0.00 | 0.00 | 0.00 | 59 | 1007.3 |
| 20260505234650 | 69 | 222 | 6.0 | 15.0 | 0.00 | 0.00 | 0.00 | 59 | 1007.3 |
| 20260505234532 | 69 | 224 | 8.0 | 15.0 | 0.00 | 0.00 | 0.00 | 59 | 1007.3 |
| 20260505234430 | 69 | 247 | 5.0 | 16.0 | 0.00 | 0.00 | 0.00 | 59 | 1007.3 |
| 20260505234330 | 69 | 326 | 7.0 | 16.0 | 0.00 | 0.00 | 0.00 | 59 | 1007.7 |
| 20260505234248 | 69 | 160 | 9.0 | 16.0 | 0.00 | 0.00 | 0.00 | 58 | 1007.7 |
| 20260505234146 | 69 | 240 | 9.0 | 18.0 | 0.00 | 0.00 | 0.00 | 59 | 1007.7 |
| 20260505234104 | 69 | 281 | 8.0 | 18.0 | 0.00 | 0.00 | 0.00 | 58 | 1007.7 |
| 20260505233942 | 69 | 216 | 6.0 | 20.0 | 0.00 | 0.00 | 0.00 | 59 | 1007.7 |
| 20260505233900 | 69 | 243 | 6.0 | 20.0 | 0.00 | 0.00 | 0.00 | 59 | 1007.7 |
| 20260505233735 | 69 | 164 | 9.0 | 20.0 | 0.00 | 0.00 | 0.00 | 59 | 1007.7 |
| 20260505233638 | 69 | 217 | 9.0 | 20.0 | 0.00 | 0.00 | 0.00 | 59 | 1007.7 |
| 20260505233556 | 69 | 257 | 9.0 | 20.0 | 0.00 | 0.00 | 0.00 | 59 | 1007.7 |
| 20260505233433 | 69 | 248 | 9.0 | 20.0 | 0.00 | 0.00 | 0.00 | 59 | 1007.7 |
| 20260505233352 | 70 | 209 | 10.0 | 20.0 | 0.00 | 0.00 | 0.00 | 58 | 1007.7 |
| 20260505233229 | 70 | 281 | 12.0 | 20.0 | 0.00 | 0.00 | 0.00 | 59 | 1007.7 |
| 20260505233201 | 70 | 295 | 11.0 | 20.0 | 0.00 | 0.00 | 0.00 | 59 | 1007.7 |
| 20260505233038 | 70 | 284 | 8.0 | 19.0 | 0.00 | 0.00 | 0.00 | 59 | 1007.7 |
| 20260505232936 | 70 | 265 | 7.0 | 19.0 | 0.00 | 0.00 | 0.00 | 59 | 1007.7 |
| 20260505232842 | 70 | 227 | 7.0 | 19.0 | 0.00 | 0.00 | 0.00 | 59 | 1008.0 |
| 20260505232740 | 70 | 298 | 9.0 | 19.0 | 0.00 | 0.00 | 0.00 | 58 | 1008.0 |
| 20260505232638 | 70 | 261 | 8.0 | 19.0 | 0.00 | 0.00 | 0.00 | 58 | 1008.0 |
| 20260505232536 | 70 | 224 | 8.0 | 19.0 | 0.00 | 0.00 | 0.00 | 58 | 1008.0 |
| 20260505232436 | 70 | 258 | 10.0 | 19.0 | 0.00 | 0.00 | 0.00 | 58 | 1008.0 |
| 20260505232334 | 70 | 315 | 10.0 | 19.0 | 0.00 | 0.00 | 0.00 | 58 | 1008.0 |
| 20260505232232 | 70 | 274 | 9.0 | 17.0 | 0.00 | 0.00 | 0.00 | 58 | 1008.0 |
| 20260505232134 | 70 | 263 | 10.0 | 25.0 | 0.00 | 0.00 | 0.00 | 58 | 1008.0 |
| 20260505232033 | 70 | 281 | 9.0 | 25.0 | 0.00 | 0.00 | 0.00 | 58 | 1008.0 |
| 20260505231932 | 70 | 271 | 7.0 | 26.0 | 0.00 | 0.00 | 0.00 | 58 | 1008.0 |
| 20260505231830 | 70 | 301 | 9.0 | 26.0 | 0.00 | 0.00 | 0.00 | 58 | 1008.0 |
| 20260505231729 | 70 | 239 | 8.0 | 26.0 | 0.00 | 0.00 | 0.00 | 57 | 1008.0 |
| 20260505231658 | 70 | 233 | 10.0 | 26.0 | 0.00 | 0.00 | 0.00 | 57 | 1008.0 |
| 20260505231535 | 70 | 208 | 8.0 | 26.0 | 0.00 | 0.00 | 0.00 | 58 | 1008.0 |
| 20260505231458 | 70 | 248 | 8.0 | 26.0 | 0.00 | 0.00 | 0.00 | 57 | 1008.0 |
| 20260505231336 | 70 | 199 | 11.0 | 26.0 | 0.00 | 0.00 | 0.00 | 58 | 1007.8 |
| 20260505231239 | 70 | 244 | 12.0 | 26.0 | 0.00 | 0.00 | 0.00 | 58 | 1007.8 |
| 20260505231136 | 70 | 318 | 11.0 | 26.0 | 0.00 | 0.00 | 0.00 | 58 | 1007.8 |
| 20260505231034 | 70 | 250 | 10.0 | 26.0 | 0.00 | 0.00 | 0.00 | 57 | 1007.8 |
| 20260505230932 | 70 | 302 | 7.0 | 20.0 | 0.00 | 0.00 | 0.00 | 57 | 1007.8 |
| 20260505230830 | 70 | 233 | 8.0 | 20.0 | 0.00 | 0.00 | 0.00 | 58 | 1007.8 |
| 20260505230733 | 70 | 254 | 8.0 | 20.0 | 0.00 | 0.00 | 0.00 | 57 | 1007.8 |
| 20260505230631 | 70 | 230 | 6.0 | 20.0 | 0.00 | 0.00 | 0.00 | 57 | 1007.8 |
| 20260505230550 | 70 | 277 | 10.0 | 20.0 | 0.00 | 0.00 | 0.00 | 57 | 1007.8 |
| 20260505230427 | 70 | 202 | 5.0 | 19.0 | 0.00 | 0.00 | 0.00 | 57 | 1007.8 |
| 20260505230325 | 70 | 233 | 6.0 | 19.0 | 0.00 | 0.00 | 0.00 | 57 | 1007.8 |
| 20260505230235 | 70 | 185 | 8.0 | 19.0 | 0.00 | 0.00 | 0.00 | 57 | 1007.8 |
| 20260505230145 | 70 | 186 | 6.0 | 20.0 | 0.00 | 0.00 | 0.00 | 57 | 1007.8 |
| 20260505230027 | 70 | 233 | 7.0 | 20.0 | 0.00 | 0.00 | 0.00 | 57 | 1007.8 |
| 20260505225928 | 70 | 260 | 9.0 | 20.0 | 0.00 | 0.00 | 0.00 | 57 | 1007.8 |
| 20260505225846 | 70 | 237 | 9.0 | 20.0 | 0.00 | 0.00 | 0.00 | 57 | 1008.1 |
| 20260505225743 | 70 | 250 | 7.0 | 20.0 | 0.00 | 0.00 | 0.00 | 57 | 1008.1 |
| 20260505225642 | 70 | 270 | 10.0 | 20.0 | 0.00 | 0.00 | 0.00 | 57 | 1008.1 |
| 20260505225541 | 70 | 298 | 10.0 | 20.0 | 0.00 | 0.00 | 0.00 | 56 | 1008.1 |
| 20260505225439 | 70 | 206 | 11.0 | 20.0 | 0.00 | 0.00 | 0.00 | 57 | 1008.1 |
| 20260505225338 | 70 | 282 | 9.0 | 20.0 | 0.00 | 0.00 | 0.00 | 56 | 1008.1 |
| 20260505225241 | 70 | 215 | 10.0 | 20.0 | 0.00 | 0.00 | 0.00 | 57 | 1008.1 |
| 20260505225138 | 70 | 270 | 10.0 | 20.0 | 0.00 | 0.00 | 0.00 | 56 | 1008.1 |
| 20260505225056 | 70 | 227 | 8.0 | 20.0 | 0.00 | 0.00 | 0.00 | 56 | 1008.1 |
| 20260505224934 | 70 | 196 | 6.0 | 20.0 | 0.00 | 0.00 | 0.00 | 56 | 1008.1 |
| 20260505224852 | 70 | 240 | 8.0 | 20.0 | 0.00 | 0.00 | 0.00 | 56 | 1008.1 |
| 20260505224750 | 70 | 294 | 6.0 | 20.0 | 0.00 | 0.00 | 0.00 | 56 | 1008.1 |
| 20260505224719 | 70 | 239 | 10.0 | 20.0 | 0.00 | 0.00 | 0.00 | 56 | 1008.1 |
| 20260505224537 | 70 | 296 | 12.0 | 20.0 | 0.00 | 0.00 | 0.00 | 56 | 1008.1 |
| 20260505224435 | 70 | 213 | 10.0 | 19.0 | 0.00 | 0.00 | 0.00 | 56 | 1008.1 |
| 20260505224338 | 70 | 330 | 10.0 | 19.0 | 0.00 | 0.00 | 0.00 | 56 | 1008.4 |
| 20260505224238 | 70 | 309 | 8.0 | 19.0 | 0.00 | 0.00 | 0.00 | 56 | 1008.4 |
| 20260505224136 | 70 | 281 | 10.0 | 19.0 | 0.00 | 0.00 | 0.00 | 56 | 1008.4 |
| 20260505224034 | 70 | 257 | 8.0 | 19.0 | 0.00 | 0.00 | 0.00 | 56 | 1008.4 |
| 20260505223932 | 70 | 236 | 10.0 | 19.0 | 0.00 | 0.00 | 0.00 | 56 | 1008.4 |
| 20260505223831 | 70 | 254 | 11.0 | 19.0 | 0.00 | 0.00 | 0.00 | 56 | 1008.4 |
| 20260505223736 | 70 | 325 | 12.0 | 19.0 | 0.00 | 0.00 | 0.00 | 56 | 1008.4 |
| 20260505223654 | 70 | 272 | 8.0 | 19.0 | 0.00 | 0.00 | 0.00 | 56 | 1008.4 |
| 20260505223533 | 70 | 305 | 8.0 | 16.0 | 0.00 | 0.00 | 0.00 | 56 | 1008.4 |
| 20260505223434 | 70 | 251 | 7.0 | 16.0 | 0.00 | 0.00 | 0.00 | 56 | 1008.4 |
| 20260505223332 | 70 | 287 | 7.0 | 16.0 | 0.00 | 0.00 | 0.00 | 56 | 1008.4 |
| 20260505223233 | 70 | 254 | 6.0 | 17.0 | 0.00 | 0.00 | 0.00 | 56 | 1008.4 |
| 20260505223204 | 70 | 272 | 6.0 | 17.0 | 0.00 | 0.00 | 0.00 | 56 | 1008.4 |
| 20260505223025 | 70 | 272 | 9.0 | 17.0 | 0.00 | 0.00 | 0.00 | 56 | 1008.4 |
| 20260505222924 | 70 | 224 | 11.0 | 17.0 | 0.00 | 0.00 | 0.00 | 56 | 1008.4 |
| 20260505222845 | 70 | 233 | 8.0 | 17.0 | 0.00 | 0.00 | 0.00 | 55 | 1008.1 |
| 20260505222724 | 70 | 330 | 7.0 | 17.0 | 0.00 | 0.00 | 0.00 | 55 | 1008.1 |
| 20260505222643 | 70 | 250 | 7.0 | 17.0 | 0.00 | 0.00 | 0.00 | 55 | 1008.1 |
| 20260505222542 | 70 | 330 | 8.0 | 17.0 | 0.00 | 0.00 | 0.00 | 55 | 1008.1 |
| 20260505222441 | 70 | 287 | 9.0 | 17.0 | 0.00 | 0.00 | 0.00 | 55 | 1008.1 |
| 20260505222339 | 70 | 263 | 10.0 | 17.0 | 0.00 | 0.00 | 0.00 | 55 | 1008.1 |
| 20260505222241 | 70 | 271 | 11.0 | 18.0 | 0.00 | 0.00 | 0.00 | 55 | 1008.1 |
| 20260505222140 | 70 | 311 | 9.0 | 18.0 | 0.00 | 0.00 | 0.00 | 55 | 1008.1 |
| 20260505222058 | 70 | 299 | 5.0 | 18.0 | 0.00 | 0.00 | 0.00 | 55 | 1008.1 |
| 20260505221935 | 70 | 240 | 8.0 | 18.0 | 0.00 | 0.00 | 0.00 | 55 | 1008.1 |
| 20260505221854 | 70 | 329 | 8.0 | 18.0 | 0.00 | 0.00 | 0.00 | 55 | 1008.1 |
| 20260505221802 | 70 | 261 | 14.0 | 18.0 | 0.00 | 0.00 | 0.00 | 54 | 1008.1 |
| 20260505221649 | 70 | 312 | 8.0 | 18.0 | 0.00 | 0.00 | 0.00 | 54 | 1008.1 |
| 20260505221546 | 71 | 261 | 11.0 | 18.0 | 0.00 | 0.00 | 0.00 | 54 | 1008.1 |
| 20260505221443 | 71 | 246 | 10.0 | 19.0 | 0.00 | 0.00 | 0.00 | 54 | 1008.1 |
| 20260505221327 | 71 | 270 | 11.0 | 19.0 | 0.00 | 0.00 | 0.00 | 54 | 1008.3 |
| 20260505221225 | 71 | 254 | 9.0 | 19.0 | 0.00 | 0.00 | 0.00 | 54 | 1008.3 |
| 20260505221142 | 71 | 257 | 8.0 | 19.0 | 0.00 | 0.00 | 0.00 | 54 | 1008.3 |
| 20260505221040 | 71 | 318 | 5.0 | 19.0 | 0.00 | 0.00 | 0.00 | 54 | 1008.3 |
| 20260505220937 | 71 | 226 | 8.0 | 19.0 | 0.00 | 0.00 | 0.00 | 54 | 1008.3 |
| 20260505220856 | 71 | 309 | 7.0 | 19.0 | 0.00 | 0.00 | 0.00 | 54 | 1008.3 |
| 20260505220734 | 71 | 263 | 13.0 | 19.0 | 0.00 | 0.00 | 0.00 | 54 | 1008.3 |
| 20260505220653 | 71 | 318 | 12.0 | 19.0 | 0.00 | 0.00 | 0.00 | 54 | 1008.3 |
| 20260505220555 | 71 | 239 | 8.0 | 18.0 | 0.00 | 0.00 | 0.00 | 54 | 1008.3 |
| 20260505220430 | 71 | 289 | 14.0 | 21.0 | 0.00 | 0.00 | 0.00 | 54 | 1008.3 |
| 20260505220349 | 71 | 272 | 8.0 | 21.0 | 0.00 | 0.00 | 0.00 | 54 | 1008.3 |
| 20260505220226 | 71 | 250 | 6.0 | 21.0 | 0.00 | 0.00 | 0.00 | 53 | 1008.3 |
| 20260505220157 | 71 | 295 | 6.0 | 21.0 | 0.00 | 0.00 | 0.00 | 53 | 1008.3 |
| 20260505220054 | 71 | 232 | 4.0 | 21.0 | 0.00 | 0.00 | 0.00 | 53 | 1008.3 |
| 20260505215931 | 71 | 251 | 7.0 | 21.0 | 0.00 | 0.00 | 0.00 | 53 | 1008.3 |
| 20260505215849 | 71 | 217 | 8.0 | 21.0 | 0.00 | 0.00 | 0.00 | 54 | 1008.1 |
| 20260505215747 | 71 | 274 | 9.0 | 21.0 | 0.00 | 0.00 | 0.00 | 54 | 1008.1 |
| 20260505215705 | 71 | 272 | 12.0 | 21.0 | 0.00 | 0.00 | 0.00 | 54 | 1008.1 |
| 20260505215547 | 71 | 212 | 12.0 | 19.0 | 0.00 | 0.00 | 0.00 | 53 | 1008.1 |
| 20260505215424 | 71 | 234 | 12.0 | 20.0 | 0.00 | 0.00 | 0.00 | 54 | 1008.1 |
| 20260505215323 | 71 | 272 | 9.0 | 20.0 | 0.00 | 0.00 | 0.00 | 53 | 1008.1 |
| 20260505215225 | 71 | 287 | 11.0 | 20.0 | 0.00 | 0.00 | 0.00 | 53 | 1008.1 |
| 20260505215144 | 71 | 289 | 11.0 | 20.0 | 0.00 | 0.00 | 0.00 | 53 | 1008.1 |
| 20260505215102 | 71 | 256 | 5.0 | 20.0 | 0.00 | 0.00 | 0.00 | 53 | 1008.1 |
| 20260505214940 | 71 | 323 | 9.0 | 20.0 | 0.00 | 0.00 | 0.00 | 53 | 1008.1 |